Time,TemperatureF,DewpointF,PressureIn,WindDirection,WindDirectionDegrees,WindSpeedMPH,WindSpeedGustMPH,Humidity,HourlyPrecipIn,Conditions,Clouds,dailyrainin,SoftwareType,DateUTC
2013-02-14 00:00:00,22.6,-99.9,-100.00,West,274,0.0,0.0,-999,0.00,,---,0.00,VWS V14.01,2013-02-14 05:00:00,
2013-02-14 00:01:00,36.3,-99.9,-100.00,SSW,208,5.4,9.9,-999,0.00,,---,0.00,VWS V14.01,2013-02-14 05:01:00,
2013-02-14 00:02:00,36.3,-99.9,-100.00,WSW,249,5.8,10.3,-999,0.00,,---,0.00,VWS V14.01,2013-02-14 05:02:00,
2013-02-14 00:03:00,36.0,-99.9,-100.00,WSW,243,8.6,13.2,-999,0.00,,---,0.00,VWS V14.01,2013-02-14 05:03:00,
2013-02-14 00:04:00,36.3,-99.9,-100.00,West,263,8.9,17.5,-999,0.00,,---,0.00,VWS V14.01,2013-02-14 05:04:00,
2013-02-14 00:05:00,22.3,-99.9,-100.00,West,274,0.0,0.0,-999,0.00,,---,0.00,VWS V14.01,2013-02-14 05:05:00,
2013-02-14 00:06:00,36.3,-99.9,-100.00,WSW,243,12.6,17.5,-999,0.00,,---,0.00,VWS V14.01,2013-02-14 05:06:00,
2013-02-14 00:07:00,36.3,-99.9,-100.00,WSW,250,9.2,17.5,-999,0.00,,---,0.00,VWS V14.01,2013-02-14 05:07:00,
2013-02-14 00:08:00,35.5,-99.9,-100.00,West,267,5.6,17.5,-999,0.00,,---,0.00,VWS V14.01,2013-02-14 05:08:00,
2013-02-14 00:09:00,35.7,-99.9,-100.00,WSW,246,8.0,17.5,-999,0.00,,---,0.00,VWS V14.01,2013-02-14 05:09:00,
2013-02-14 00:10:00,21.8,-99.9,-100.00,West,274,0.0,0.0,-999,0.00,,---,0.00,VWS V14.01,2013-02-14 05:10:00,
2013-02-14 00:11:00,36.0,-99.9,-100.00,WSW,243,6.6,17.5,-999,0.00,,---,0.00,VWS V14.01,2013-02-14 05:11:00,
2013-02-14 00:12:00,35.7,-99.9,-100.00,WSW,239,9.4,17.5,-999,0.00,,---,0.00,VWS V14.01,2013-02-14 05:12:00,
2013-02-14 00:13:00,35.7,-99.9,-100.00,SW,233,5.9,17.5,-999,0.00,,---,0.00,VWS V14.01,2013-02-14 05:13:00,
2013-02-14 00:14:00,35.7,-99.9,-100.00,West,267,8.0,17.5,-999,0.00,,---,0.00,VWS V14.01,2013-02-14 05:14:00,
2013-02-14 00:15:00,22.1,-99.9,-100.00,West,274,0.0,0.0,-999,0.00,,---,0.00,VWS V14.01,2013-02-14 05:15:00,
2013-02-14 00:16:00,35.5,-99.9,-100.00,WNW,298,4.7,17.5,-999,0.00,,---,0.00,VWS V14.01,2013-02-14 05:16:00,
2013-02-14 00:17:00,36.0,-99.9,-100.00,West,277,6.0,17.5,-999,0.00,,---,0.00,VWS V14.01,2013-02-14 05:17:00,
2013-02-14 00:18:00,35.3,-99.9,-100.00,SW,235,4.7,17.5,-999,0.00,,---,0.00,VWS V14.01,2013-02-14 05:18:00,
2013-02-14 00:19:00,35.5,-99.9,-100.00,West,274,11.2,17.5,-999,0.00,,---,0.00,VWS V14.01,2013-02-14 05:19:00,
2013-02-14 00:20:00,22.3,-99.9,-100.00,West,274,0.0,0.0,-999,0.00,,---,0.00,VWS V14.01,2013-02-14 05:20:00,
2013-02-14 00:21:00,35.0,-99.9,-100.00,WSW,240,7.8,17.5,-999,0.00,,---,0.00,VWS V14.01,2013-02-14 05:21:00,
2013-02-14 00:22:00,35.5,-99.9,-100.00,SW,225,3.4,17.5,-999,0.00,,---,0.00,VWS V14.01,2013-02-14 05:22:00,
2013-02-14 00:23:00,35.5,-99.9,-100.00,WNW,287,4.1,17.5,-999,0.00,,---,0.00,VWS V14.01,2013-02-14 05:23:00,
2013-02-14 00:24:00,35.3,-99.9,-100.00,WSW,249,7.5,17.5,-999,0.00,,---,0.00,VWS V14.01,2013-02-14 05:24:00,
2013-02-14 00:25:00,22.3,-99.9,-100.00,West,274,0.0,0.0,-999,0.00,,---,0.00,VWS V14.01,2013-02-14 05:25:00,
2013-02-14 00:26:00,35.5,-99.9,-100.00,WNW,283,7.7,17.5,-999,0.00,,---,0.00,VWS V14.01,2013-02-14 05:26:00,
2013-02-14 00:27:00,35.3,-99.9,-100.00,West,269,9.8,17.5,-999,0.00,,---,0.00,VWS V14.01,2013-02-14 05:27:00,
2013-02-14 00:28:00,35.5,-99.9,-100.00,WSW,243,10.2,17.5,-999,0.00,,---,0.00,VWS V14.01,2013-02-14 05:28:00,
2013-02-14 00:29:00,35.3,-99.9,-100.00,SW,236,7.5,17.5,-999,0.00,,---,0.00,VWS V14.01,2013-02-14 05:29:00,
2013-02-14 00:30:00,22.6,-99.9,-100.00,West,274,0.0,0.0,-999,0.00,,---,0.00,VWS V14.01,2013-02-14 05:30:00,
2013-02-14 00:31:00,35.3,-99.9,-100.00,WSW,253,9.8,17.5,-999,0.00,,---,0.00,VWS V14.01,2013-02-14 05:31:00,
2013-02-14 00:32:00,35.3,-99.9,-100.00,SW,233,13.3,17.5,-999,0.00,,---,0.00,VWS V14.01,2013-02-14 05:32:00,
2013-02-14 00:33:00,35.5,-99.9,-100.00,WSW,246,16.3,19.9,-999,0.00,,---,0.00,VWS V14.01,2013-02-14 05:33:00,
2013-02-14 00:34:00,35.5,-99.9,-100.00,WSW,243,18.8,19.9,-999,0.00,,---,0.00,VWS V14.01,2013-02-14 05:34:00,
2013-02-14 00:35:00,22.3,-99.9,-100.00,West,274,0.0,0.0,-999,0.00,,---,0.00,VWS V14.01,2013-02-14 05:35:00,
2013-02-14 00:36:00,21.8,-99.9,-100.00,West,274,0.0,0.0,-999,0.00,,---,0.00,VWS V14.01,2013-02-14 05:36:00,
2013-02-14 00:37:00,35.5,-99.9,-100.00,WSW,252,5.2,19.9,-999,0.00,,---,0.00,VWS V14.01,2013-02-14 05:37:00,
2013-02-14 00:38:00,35.5,-99.9,-100.00,WSW,257,3.4,19.9,-999,0.00,,---,0.00,VWS V14.01,2013-02-14 05:38:00,
2013-02-14 00:39:00,35.0,-99.9,-100.00,SSW,198,9.8,19.9,-999,0.00,,---,0.00,VWS V14.01,2013-02-14 05:39:00,
2013-02-14 00:40:00,22.3,-99.9,-100.00,West,274,0.0,0.0,-999,0.00,,---,0.00,VWS V14.01,2013-02-14 05:40:00,
2013-02-14 00:41:00,22.3,-99.9,-100.00,West,274,0.0,0.0,-999,0.00,,---,0.00,VWS V14.01,2013-02-14 05:41:00,
2013-02-14 00:42:00,35.3,-99.9,-100.00,SW,232,9.4,19.9,-999,0.00,,---,0.00,VWS V14.01,2013-02-14 05:42:00,
2013-02-14 00:43:00,35.0,-99.9,-100.00,WSW,242,7.7,19.9,-999,0.00,,---,0.00,VWS V14.01,2013-02-14 05:43:00,
2013-02-14 00:44:00,35.5,-99.9,-100.00,SW,221,6.0,19.9,-999,0.00,,---,0.00,VWS V14.01,2013-02-14 05:44:00,
2013-02-14 00:45:00,22.3,-99.9,-100.00,West,274,0.0,0.0,-999,0.00,,---,0.00,VWS V14.01,2013-02-14 05:45:00,
2013-02-14 00:46:00,22.3,-99.9,-100.00,West,274,0.0,0.0,-999,0.00,,---,0.00,VWS V14.01,2013-02-14 05:46:00,
2013-02-14 00:47:00,35.3,-99.9,-100.00,SW,214,7.4,19.9,-999,0.00,,---,0.00,VWS V14.01,2013-02-14 05:47:00,
2013-02-14 00:48:00,35.3,-99.9,-100.00,SW,229,5.8,19.9,-999,0.00,,---,0.00,VWS V14.01,2013-02-14 05:48:00,
2013-02-14 00:49:00,35.5,-99.9,-100.00,SW,219,6.2,19.9,-999,0.00,,---,0.00,VWS V14.01,2013-02-14 05:49:00,
2013-02-14 00:50:00,22.6,-99.9,-100.00,West,274,0.0,0.0,-999,0.00,,---,0.00,VWS V14.01,2013-02-14 05:50:00,
2013-02-14 00:51:00,22.9,-99.9,-100.00,West,274,0.0,0.0,-999,0.00,,---,0.00,VWS V14.01,2013-02-14 05:51:00,
2013-02-14 00:52:00,35.3,-99.9,-100.00,SW,236,9.4,19.9,-999,0.00,,---,0.00,VWS V14.01,2013-02-14 05:52:00,
2013-02-14 00:53:00,35.5,-99.9,-100.00,SW,232,10.6,19.9,-999,0.00,,---,0.00,VWS V14.01,2013-02-14 05:53:00,
2013-02-14 00:54:00,35.5,-99.9,-100.00,SW,233,6.5,19.9,-999,0.00,,---,0.00,VWS V14.01,2013-02-14 05:54:00,
2013-02-14 00:55:00,22.3,-99.9,-100.00,West,274,0.0,0.0,-999,0.00,,---,0.00,VWS V14.01,2013-02-14 05:55:00,
2013-02-14 00:56:00,22.3,-99.9,-100.00,West,274,0.0,0.0,-999,0.00,,---,0.00,VWS V14.01,2013-02-14 05:56:00,
2013-02-14 00:57:00,35.3,-99.9,-100.00,SW,219,6.0,19.9,-999,0.00,,---,0.00,VWS V14.01,2013-02-14 05:57:00,
2013-02-14 00:58:00,35.0,-99.9,-100.00,SSW,200,8.8,19.9,-999,0.00,,---,0.00,VWS V14.01,2013-02-14 05:58:00,
2013-02-14 00:59:00,35.3,-99.9,-100.00,West,273,7.7,19.9,-999,0.00,,---,0.00,VWS V14.01,2013-02-14 05:59:00,
2013-02-14 01:00:00,22.6,-99.9,-100.00,West,274,0.0,0.0,-999,0.00,,---,0.00,VWS V14.01,2013-02-14 06:00:00,
2013-02-14 01:01:00,22.6,-99.9,-100.00,West,274,0.0,0.0,-999,0.00,,---,0.00,VWS V14.01,2013-02-14 06:01:00,
2013-02-14 01:06:00,22.9,-99.9,-100.00,West,274,0.0,0.0,-999,0.00,,---,0.00,VWS V14.01,2013-02-14 06:06:00,
2013-02-14 01:07:00,23.1,-99.9,-100.00,West,274,0.0,0.0,-999,0.00,,---,0.00,VWS V14.01,2013-02-14 06:07:00,
2013-02-14 01:11:00,22.6,-99.9,-100.00,West,274,0.0,0.0,-999,0.00,,---,0.00,VWS V14.01,2013-02-14 06:11:00,
2013-02-14 01:12:00,22.9,-99.9,-100.00,West,274,0.0,0.0,-999,0.00,,---,0.00,VWS V14.01,2013-02-14 06:12:00,
2013-02-14 01:16:00,23.1,-99.9,-100.00,West,274,0.0,0.0,-999,0.00,,---,0.00,VWS V14.01,2013-02-14 06:16:00,
2013-02-14 01:17:00,22.9,-99.9,-100.00,South,184,2.8,5.2,-999,0.00,,---,0.00,VWS V14.01,2013-02-14 06:17:00,
2013-02-14 01:21:00,23.1,-99.9,-100.00,SW,231,0.0,0.0,-999,0.00,,---,0.00,VWS V14.01,2013-02-14 06:21:00,
2013-02-14 01:22:00,23.1,-99.9,-100.00,SW,231,0.0,0.0,-999,0.00,,---,0.00,VWS V14.01,2013-02-14 06:22:00,
2013-02-14 01:26:00,23.1,-99.9,-100.00,SW,231,0.0,0.0,-999,0.00,,---,0.00,VWS V14.01,2013-02-14 06:26:00,
2013-02-14 01:27:00,23.4,-99.9,-100.00,SW,231,0.0,0.0,-999,0.00,,---,0.00,VWS V14.01,2013-02-14 06:27:00,
2013-02-14 01:31:00,23.4,-99.9,-100.00,SW,231,0.0,0.0,-999,0.00,,---,0.00,VWS V14.01,2013-02-14 06:31:00,
2013-02-14 01:32:00,23.1,-99.9,-100.00,SW,231,0.0,0.0,-999,0.00,,---,0.00,VWS V14.01,2013-02-14 06:32:00,
2013-02-14 01:36:00,23.1,-99.9,-100.00,SW,231,0.0,0.0,-999,0.00,,---,0.00,VWS V14.01,2013-02-14 06:36:00,
2013-02-14 01:37:00,23.1,-99.9,-100.00,SW,231,0.0,0.0,-999,0.00,,---,0.00,VWS V14.01,2013-02-14 06:37:00,
2013-02-14 01:41:00,23.7,-99.9,-100.00,SSW,200,0.0,4.5,-999,0.00,,---,0.00,VWS V14.01,2013-02-14 06:41:00,
2013-02-14 01:42:00,23.4,-99.9,-100.00,SSW,200,0.0,4.5,-999,0.00,,---,0.00,VWS V14.01,2013-02-14 06:42:00,
2013-02-14 01:46:00,23.4,-99.9,-100.00,SW,224,0.0,0.0,-999,0.00,,---,0.00,VWS V14.01,2013-02-14 06:46:00,
2013-02-14 01:47:00,23.1,-99.9,-100.00,SW,224,0.0,0.0,-999,0.00,,---,0.00,VWS V14.01,2013-02-14 06:47:00,
2013-02-14 01:51:00,23.4,-99.9,-100.00,SW,224,0.0,0.0,-999,0.00,,---,0.00,VWS V14.01,2013-02-14 06:51:00,
2013-02-14 01:52:00,23.9,-99.9,-100.00,SW,224,0.0,0.0,-999,0.00,,---,0.00,VWS V14.01,2013-02-14 06:52:00,
2013-02-14 01:53:00,23.4,-99.9,-100.00,SW,224,0.0,0.0,-999,0.00,,---,0.00,VWS V14.01,2013-02-14 06:53:00,
2013-02-14 01:56:00,23.4,-99.9,-100.00,SW,224,0.0,0.0,-999,0.00,,---,0.00,VWS V14.01,2013-02-14 06:56:00,
2013-02-14 01:57:00,23.9,-99.9,-100.00,SW,224,0.0,0.0,-999,0.00,,---,0.00,VWS V14.01,2013-02-14 06:57:00,
2013-02-14 01:58:00,24.2,-99.9,-100.00,SW,224,0.0,0.0,-999,0.00,,---,0.00,VWS V14.01,2013-02-14 06:58:00,
2013-02-14 02:01:00,23.9,-99.9,-100.00,SW,224,0.0,0.0,-999,0.00,,---,0.00,VWS V14.01,2013-02-14 07:01:00,
2013-02-14 02:02:00,23.7,-99.9,-100.00,SW,224,0.0,0.0,-999,0.00,,---,0.00,VWS V14.01,2013-02-14 07:02:00,
2013-02-14 02:03:00,23.9,-99.9,-100.00,SW,224,0.0,0.0,-999,0.00,,---,0.00,VWS V14.01,2013-02-14 07:03:00,
2013-02-14 02:06:00,23.9,-99.9,-100.00,SW,224,0.0,0.0,-999,0.00,,---,0.00,VWS V14.01,2013-02-14 07:06:00,
2013-02-14 02:07:00,23.9,-99.9,-100.00,SW,224,0.0,0.0,-999,0.00,,---,0.00,VWS V14.01,2013-02-14 07:07:00,
2013-02-14 02:08:00,23.9,-99.9,-100.00,SW,224,0.0,0.0,-999,0.00,,---,0.00,VWS V14.01,2013-02-14 07:08:00,
2013-02-14 02:11:00,23.7,-99.9,-100.00,SW,224,0.0,0.0,-999,0.00,,---,0.00,VWS V14.01,2013-02-14 07:11:00,
2013-02-14 02:12:00,23.7,-99.9,-100.00,SW,224,0.0,0.0,-999,0.00,,---,0.00,VWS V14.01,2013-02-14 07:12:00,
2013-02-14 02:13:00,24.2,-99.9,-100.00,SW,224,0.0,0.0,-999,0.00,,---,0.00,VWS V14.01,2013-02-14 07:13:00,
2013-02-14 02:16:00,23.9,-99.9,-100.00,SW,224,0.0,0.0,-999,0.00,,---,0.00,VWS V14.01,2013-02-14 07:16:00,
2013-02-14 02:17:00,23.9,-99.9,-100.00,SW,224,0.0,0.0,-999,0.00,,---,0.00,VWS V14.01,2013-02-14 07:17:00,
2013-02-14 02:18:00,23.7,-99.9,-100.00,SW,224,0.0,0.0,-999,0.00,,---,0.00,VWS V14.01,2013-02-14 07:18:00,
2013-02-14 02:21:00,23.9,-99.9,-100.00,SW,224,0.0,0.0,-999,0.00,,---,0.00,VWS V14.01,2013-02-14 07:21:00,
2013-02-14 02:22:00,23.7,-99.9,-100.00,SW,224,0.0,0.0,-999,0.00,,---,0.00,VWS V14.01,2013-02-14 07:22:00,
2013-02-14 02:23:00,23.4,-99.9,-100.00,SW,224,0.0,0.0,-999,0.00,,---,0.00,VWS V14.01,2013-02-14 07:23:00,
2013-02-14 02:27:00,23.7,-99.9,-100.00,SW,224,0.0,0.0,-999,0.00,,---,0.00,VWS V14.01,2013-02-14 07:27:00,
2013-02-14 02:28:00,23.1,-99.9,-100.00,SW,224,0.0,0.0,-999,0.00,,---,0.00,VWS V14.01,2013-02-14 07:28:00,
2013-02-14 02:32:00,23.4,-99.9,-100.00,SW,224,0.0,0.0,-999,0.00,,---,0.00,VWS V14.01,2013-02-14 07:32:00,
2013-02-14 02:33:00,23.4,-99.9,-100.00,SW,224,0.0,0.0,-999,0.00,,---,0.00,VWS V14.01,2013-02-14 07:33:00,
2013-02-14 02:37:00,23.1,-99.9,-100.00,SW,224,0.0,0.0,-999,0.00,,---,0.00,VWS V14.01,2013-02-14 07:37:00,
2013-02-14 02:38:00,23.1,-99.9,-100.00,SW,224,0.0,0.0,-999,0.00,,---,0.00,VWS V14.01,2013-02-14 07:38:00,
2013-02-14 02:39:00,23.1,-99.9,-100.00,SW,224,0.0,0.0,-999,0.00,,---,0.00,VWS V14.01,2013-02-14 07:39:00,
2013-02-14 02:42:00,22.9,-99.9,-100.00,SW,224,0.0,0.0,-999,0.00,,---,0.00,VWS V14.01,2013-02-14 07:42:00,
2013-02-14 02:43:00,23.1,-99.9,-100.00,SW,224,0.0,0.0,-999,0.00,,---,0.00,VWS V14.01,2013-02-14 07:43:00,
2013-02-14 02:44:00,23.1,-99.9,-100.00,SW,224,0.0,0.0,-999,0.00,,---,0.00,VWS V14.01,2013-02-14 07:44:00,
2013-02-14 02:47:00,23.1,-99.9,-100.00,SW,224,0.0,0.0,-999,0.00,,---,0.00,VWS V14.01,2013-02-14 07:47:00,
2013-02-14 02:48:00,23.1,-99.9,-100.00,SW,224,0.0,0.0,-999,0.00,,---,0.00,VWS V14.01,2013-02-14 07:48:00,
2013-02-14 02:49:00,23.1,-99.9,-100.00,SW,224,0.0,0.0,-999,0.00,,---,0.00,VWS V14.01,2013-02-14 07:49:00,
2013-02-14 02:52:00,23.1,-99.9,-100.00,SW,224,0.0,0.0,-999,0.00,,---,0.00,VWS V14.01,2013-02-14 07:52:00,
2013-02-14 02:53:00,23.1,-99.9,-100.00,SW,224,0.0,0.0,-999,0.00,,---,0.00,VWS V14.01,2013-02-14 07:53:00,
2013-02-14 02:54:00,23.1,-99.9,-100.00,SW,224,0.0,0.0,-999,0.00,,---,0.00,VWS V14.01,2013-02-14 07:54:00,
2013-02-14 02:57:00,23.1,-99.9,-100.00,SW,224,0.0,0.0,-999,0.00,,---,0.00,VWS V14.01,2013-02-14 07:57:00,
2013-02-14 02:58:00,23.1,-99.9,-100.00,SW,224,0.0,0.0,-999,0.00,,---,0.00,VWS V14.01,2013-02-14 07:58:00,
2013-02-14 02:59:00,22.9,-99.9,-100.00,SW,224,0.0,0.0,-999,0.00,,---,0.00,VWS V14.01,2013-02-14 07:59:00,
2013-02-14 03:02:00,23.1,-99.9,-100.00,SW,224,0.0,0.0,-999,0.00,,---,0.00,VWS V14.01,2013-02-14 08:02:00,
2013-02-14 03:03:00,23.1,-99.9,-100.00,SW,224,0.0,0.0,-999,0.00,,---,0.00,VWS V14.01,2013-02-14 08:03:00,
2013-02-14 03:04:00,23.1,-99.9,-100.00,SW,224,0.0,0.0,-999,0.00,,---,0.00,VWS V14.01,2013-02-14 08:04:00,
2013-02-14 03:07:00,23.1,-99.9,-100.00,SW,224,0.0,0.0,-999,0.00,,---,0.00,VWS V14.01,2013-02-14 08:07:00,
2013-02-14 03:09:00,23.1,-99.9,-100.00,SW,224,0.0,0.0,-999,0.00,,---,0.00,VWS V14.01,2013-02-14 08:09:00,
2013-02-14 03:12:00,23.4,-99.9,-100.00,SW,224,0.0,0.0,-999,0.00,,---,0.00,VWS V14.01,2013-02-14 08:12:00,
2013-02-14 03:13:00,23.4,-99.9,-100.00,SW,224,0.0,0.0,-999,0.00,,---,0.00,VWS V14.01,2013-02-14 08:13:00,
2013-02-14 03:14:00,23.4,-99.9,-100.00,SW,224,0.0,0.0,-999,0.00,,---,0.00,VWS V14.01,2013-02-14 08:14:00,
2013-02-14 03:15:00,23.1,-99.9,-100.00,SW,224,0.0,0.0,-999,0.00,,---,0.00,VWS V14.01,2013-02-14 08:15:00,
2013-02-14 03:17:00,23.4,-99.9,-100.00,SW,224,0.0,0.0,-999,0.00,,---,0.00,VWS V14.01,2013-02-14 08:17:00,
2013-02-14 03:18:00,23.9,-99.9,-100.00,SW,224,0.0,0.0,-999,0.00,,---,0.00,VWS V14.01,2013-02-14 08:18:00,
2013-02-14 03:19:00,23.1,-99.9,-100.00,SW,224,0.0,0.0,-999,0.00,,---,0.00,VWS V14.01,2013-02-14 08:19:00,
2013-02-14 03:20:00,23.1,-99.9,-100.00,SW,224,0.0,0.0,-999,0.00,,---,0.00,VWS V14.01,2013-02-14 08:20:00,
2013-02-14 03:23:00,23.4,-99.9,-100.00,SW,224,0.0,0.0,-999,0.00,,---,0.00,VWS V14.01,2013-02-14 08:23:00,
2013-02-14 03:24:00,23.9,-99.9,-100.00,SW,224,0.0,0.0,-999,0.00,,---,0.00,VWS V14.01,2013-02-14 08:24:00,
2013-02-14 03:25:00,23.5,-99.9,-100.00,SW,224,0.0,0.0,-999,0.00,,---,0.00,VWS V14.01,2013-02-14 08:25:00,
2013-02-14 03:28:00,23.9,-99.9,-100.00,SW,224,0.0,0.0,-999,0.00,,---,0.00,VWS V14.01,2013-02-14 08:28:00,
2013-02-14 03:29:00,23.5,-99.9,-100.00,SW,224,0.0,0.0,-999,0.00,,---,0.00,VWS V14.01,2013-02-14 08:29:00,
2013-02-14 03:30:00,23.3,-99.9,-100.00,SW,224,0.0,0.0,-999,0.00,,---,0.00,VWS V14.01,2013-02-14 08:30:00,
2013-02-14 03:33:00,23.5,-99.9,-100.00,SW,224,0.0,0.0,-999,0.00,,---,0.00,VWS V14.01,2013-02-14 08:33:00,
2013-02-14 03:34:00,23.5,-99.9,-100.00,SW,224,0.0,0.0,-999,0.00,,---,0.00,VWS V14.01,2013-02-14 08:34:00,
2013-02-14 03:35:00,23.1,-99.9,-100.00,SW,224,0.0,0.0,-999,0.00,,---,0.00,VWS V14.01,2013-02-14 08:35:00,
2013-02-14 03:38:00,23.7,-99.9,-100.00,SW,224,0.0,0.0,-999,0.00,,---,0.00,VWS V14.01,2013-02-14 08:38:00,
2013-02-14 03:39:00,23.7,-99.9,-100.00,SW,224,0.0,0.0,-999,0.00,,---,0.00,VWS V14.01,2013-02-14 08:39:00,
2013-02-14 03:40:00,23.7,-99.9,-100.00,SW,224,0.0,0.0,-999,0.00,,---,0.00,VWS V14.01,2013-02-14 08:40:00,
2013-02-14 03:43:00,23.9,-99.9,-100.00,SW,224,0.0,0.0,-999,0.00,,---,0.00,VWS V14.01,2013-02-14 08:43:00,
2013-02-14 03:44:00,24.2,-99.9,-100.00,SW,224,0.0,0.0,-999,0.00,,---,0.00,VWS V14.01,2013-02-14 08:44:00,
2013-02-14 03:45:00,23.9,-99.9,-100.00,SW,224,0.0,0.0,-999,0.00,,---,0.00,VWS V14.01,2013-02-14 08:45:00,
2013-02-14 03:48:00,23.9,-99.9,-100.00,SW,224,0.0,0.0,-999,0.00,,---,0.00,VWS V14.01,2013-02-14 08:48:00,
2013-02-14 03:49:00,23.4,-99.9,-100.00,SW,224,0.0,0.0,-999,0.00,,---,0.00,VWS V14.01,2013-02-14 08:49:00,
2013-02-14 03:51:00,23.4,-99.9,-100.00,SW,224,0.0,0.0,-999,0.00,,---,0.00,VWS V14.01,2013-02-14 08:51:00,
2013-02-14 03:53:00,23.7,-99.9,-100.00,SW,224,0.0,0.0,-999,0.00,,---,0.00,VWS V14.01,2013-02-14 08:53:00,
2013-02-14 03:54:00,23.9,-99.9,-100.00,SW,224,0.0,0.0,-999,0.00,,---,0.00,VWS V14.01,2013-02-14 08:54:00,
2013-02-14 03:56:00,23.7,-99.9,-100.00,SW,224,0.0,0.0,-999,0.00,,---,0.00,VWS V14.01,2013-02-14 08:56:00,
2013-02-14 03:58:00,24.2,-99.9,-100.00,SW,224,0.0,0.0,-999,0.00,,---,0.00,VWS V14.01,2013-02-14 08:58:00,
2013-02-14 03:59:00,23.7,-99.9,-100.00,SW,224,0.0,0.0,-999,0.00,,---,0.00,VWS V14.01,2013-02-14 08:59:00,
2013-02-14 04:01:00,23.4,-99.9,-100.00,SW,224,0.0,0.0,-999,0.00,,---,0.00,VWS V14.01,2013-02-14 09:01:00,
2013-02-14 04:04:00,23.9,-99.9,-100.00,SW,224,0.0,0.0,-999,0.00,,---,0.00,VWS V14.01,2013-02-14 09:04:00,
2013-02-14 04:06:00,23.7,-99.9,-100.00,SW,224,0.0,0.0,-999,0.00,,---,0.00,VWS V14.01,2013-02-14 09:06:00,
2013-02-14 04:09:00,23.9,-99.9,-100.00,SW,224,0.0,0.0,-999,0.00,,---,0.00,VWS V14.01,2013-02-14 09:09:00,
2013-02-14 04:11:00,23.4,-99.9,-100.00,SW,224,0.0,0.0,-999,0.00,,---,0.00,VWS V14.01,2013-02-14 09:11:00,
2013-02-14 04:14:00,23.7,-99.9,-100.00,SW,224,0.0,0.0,-999,0.00,,---,0.00,VWS V14.01,2013-02-14 09:14:00,
2013-02-14 04:16:00,23.7,-99.9,-100.00,SW,224,0.0,0.0,-999,0.00,,---,0.00,VWS V14.01,2013-02-14 09:16:00,
2013-02-14 04:19:00,23.9,-99.9,-100.00,SW,224,0.0,0.0,-999,0.00,,---,0.00,VWS V14.01,2013-02-14 09:19:00,
2013-02-14 04:20:00,23.7,-99.9,-100.00,SW,224,0.0,0.0,-999,0.00,,---,0.00,VWS V14.01,2013-02-14 09:20:00,
2013-02-14 04:21:00,23.7,-99.9,-100.00,SW,224,0.0,0.0,-999,0.00,,---,0.00,VWS V14.01,2013-02-14 09:21:00,
2013-02-14 04:24:00,23.7,-99.9,-100.00,SW,224,0.0,0.0,-999,0.00,,---,0.00,VWS V14.01,2013-02-14 09:24:00,
2013-02-14 04:25:00,23.4,-99.9,-100.00,SW,224,0.0,0.0,-999,0.00,,---,0.00,VWS V14.01,2013-02-14 09:25:00,
2013-02-14 04:26:00,23.9,-99.9,-100.00,SW,224,0.0,0.0,-999,0.00,,---,0.00,VWS V14.01,2013-02-14 09:26:00,
2013-02-14 04:29:00,23.9,-99.9,-100.00,SW,224,0.0,0.0,-999,0.00,,---,0.00,VWS V14.01,2013-02-14 09:29:00,
2013-02-14 04:30:00,23.7,-99.9,-100.00,SW,224,0.0,0.0,-999,0.00,,---,0.00,VWS V14.01,2013-02-14 09:30:00,
2013-02-14 04:31:00,23.4,-99.9,-100.00,SW,224,0.0,0.0,-999,0.00,,---,0.00,VWS V14.01,2013-02-14 09:31:00,
2013-02-14 04:34:00,23.4,-99.9,-100.00,SW,224,0.0,0.0,-999,0.00,,---,0.00,VWS V14.01,2013-02-14 09:34:00,
2013-02-14 04:35:00,23.1,-99.9,-100.00,SW,224,0.0,0.0,-999,0.00,,---,0.00,VWS V14.01,2013-02-14 09:35:00,
2013-02-14 04:36:00,23.4,-99.9,-100.00,SW,224,0.0,0.0,-999,0.00,,---,0.00,VWS V14.01,2013-02-14 09:36:00,
2013-02-14 04:39:00,23.4,-99.9,-100.00,SW,224,0.0,0.0,-999,0.00,,---,0.00,VWS V14.01,2013-02-14 09:39:00,
2013-02-14 04:40:00,23.4,-99.9,-100.00,SW,224,0.0,0.0,-999,0.00,,---,0.00,VWS V14.01,2013-02-14 09:40:00,
2013-02-14 04:41:00,22.9,-99.9,-100.00,SW,224,0.0,0.0,-999,0.00,,---,0.00,VWS V14.01,2013-02-14 09:41:00,
2013-02-14 04:44:00,22.9,-99.9,-100.00,SW,224,0.0,0.0,-999,0.00,,---,0.00,VWS V14.01,2013-02-14 09:44:00,
2013-02-14 04:45:00,22.9,-99.9,-100.00,SW,224,0.0,0.0,-999,0.00,,---,0.00,VWS V14.01,2013-02-14 09:45:00,
2013-02-14 04:46:00,22.6,-99.9,-100.00,SW,224,0.0,0.0,-999,0.00,,---,0.00,VWS V14.01,2013-02-14 09:46:00,
2013-02-14 04:49:00,22.3,-99.9,-100.00,SW,224,0.0,0.0,-999,0.00,,---,0.00,VWS V14.01,2013-02-14 09:49:00,
2013-02-14 04:50:00,22.9,-99.9,-100.00,SW,224,0.0,0.0,-999,0.00,,---,0.00,VWS V14.01,2013-02-14 09:50:00,
2013-02-14 04:51:00,22.6,-99.9,-100.00,SW,224,0.0,0.0,-999,0.00,,---,0.00,VWS V14.01,2013-02-14 09:51:00,
2013-02-14 04:54:00,23.1,-99.9,-100.00,SW,224,0.0,0.0,-999,0.00,,---,0.00,VWS V14.01,2013-02-14 09:54:00,
2013-02-14 04:55:00,23.4,-99.9,-100.00,SW,224,0.0,0.0,-999,0.00,,---,0.00,VWS V14.01,2013-02-14 09:55:00,
2013-02-14 04:57:00,23.1,-99.9,-100.00,SW,224,0.0,0.0,-999,0.00,,---,0.00,VWS V14.01,2013-02-14 09:57:00,
2013-02-14 04:59:00,23.1,-99.9,-100.00,SW,224,0.0,0.0,-999,0.00,,---,0.00,VWS V14.01,2013-02-14 09:59:00,
2013-02-14 05:00:00,23.9,-99.9,-100.00,SW,224,0.0,0.0,-999,0.00,,---,0.00,VWS V14.01,2013-02-14 10:00:00,
2013-02-14 05:02:00,23.7,-99.9,-100.00,SW,224,0.0,0.0,-999,0.00,,---,0.00,VWS V14.01,2013-02-14 10:02:00,
2013-02-14 05:05:00,23.9,-99.9,-100.00,SW,224,0.0,0.0,-999,0.00,,---,0.00,VWS V14.01,2013-02-14 10:05:00,
2013-02-14 05:07:00,24.4,-99.9,-100.00,SW,224,0.0,0.0,-999,0.00,,---,0.00,VWS V14.01,2013-02-14 10:07:00,
2013-02-14 05:10:00,24.4,-99.9,-100.00,SW,224,0.0,0.0,-999,0.00,,---,0.00,VWS V14.01,2013-02-14 10:10:00,
2013-02-14 05:12:00,24.7,-99.9,-100.00,South,172,0.0,0.0,-999,0.00,,---,0.00,VWS V14.01,2013-02-14 10:12:00,
2013-02-14 05:15:00,24.7,-99.9,-100.00,South,172,0.0,0.0,-999,0.00,,---,0.00,VWS V14.01,2013-02-14 10:15:00,
2013-02-14 05:16:00,25.2,-99.9,-100.00,South,172,0.0,0.0,-999,0.00,,---,0.00,VWS V14.01,2013-02-14 10:16:00,
2013-02-14 05:17:00,25.2,-99.9,-100.00,South,172,0.0,0.0,-999,0.00,,---,0.00,VWS V14.01,2013-02-14 10:17:00,
2013-02-14 05:20:00,24.8,-99.9,-100.00,SSW,198,4.5,5.3,-999,0.00,,---,0.00,VWS V14.01,2013-02-14 10:20:00,
2013-02-14 05:21:00,25.3,-99.9,-100.00,South,179,3.1,7.5,-999,0.00,,---,0.00,VWS V14.01,2013-02-14 10:21:00,
2013-02-14 05:22:00,24.6,-99.9,-100.00,South,179,0.0,0.0,-999,0.00,,---,0.00,VWS V14.01,2013-02-14 10:22:00,
2013-02-14 05:25:00,25.0,-99.9,-100.00,SSW,212,3.4,6.6,-999,0.00,,---,0.00,VWS V14.01,2013-02-14 10:25:00,
2013-02-14 05:26:00,24.8,-99.9,-100.00,South,188,0.0,4.8,-999,0.00,,---,0.00,VWS V14.01,2013-02-14 10:26:00,
2013-02-14 05:27:00,24.6,-99.9,-100.00,South,180,4.5,5.7,-999,0.00,,---,0.00,VWS V14.01,2013-02-14 10:27:00,
2013-02-14 05:30:00,24.7,-99.9,-100.00,South,179,5.9,6.0,-999,0.00,,---,0.00,VWS V14.01,2013-02-14 10:30:00,
2013-02-14 05:31:00,24.7,-99.9,-100.00,SSW,207,4.7,5.1,-999,0.00,,---,0.00,VWS V14.01,2013-02-14 10:31:00,
2013-02-14 05:32:00,24.9,-99.9,-100.00,SSE,148,5.7,7.6,-999,0.00,,---,0.00,VWS V14.01,2013-02-14 10:32:00,
2013-02-14 05:35:00,24.9,-99.9,-100.00,SSE,162,0.0,7.0,-999,0.00,,---,0.00,VWS V14.01,2013-02-14 10:35:00,
2013-02-14 05:36:00,24.7,-99.9,-100.00,South,172,3.4,6.9,-999,0.00,,---,0.00,VWS V14.01,2013-02-14 10:36:00,
2013-02-14 05:37:00,24.7,-99.9,-100.00,SSW,197,5.5,5.5,-999,0.00,,---,0.00,VWS V14.01,2013-02-14 10:37:00,
2013-02-14 05:40:00,24.9,-99.9,-100.00,South,190,5.9,5.9,-999,0.00,,---,0.00,VWS V14.01,2013-02-14 10:40:00,
2013-02-14 05:41:00,24.9,-99.9,-100.00,South,180,6.0,7.5,-999,0.00,,---,0.00,VWS V14.01,2013-02-14 10:41:00,
2013-02-14 05:42:00,25.4,-99.9,-100.00,South,184,5.6,5.6,-999,0.00,,---,0.00,VWS V14.01,2013-02-14 10:42:00,
2013-02-14 05:45:00,25.2,-99.9,-100.00,SSW,201,0.0,4.2,-999,0.00,,---,0.00,VWS V14.01,2013-02-14 10:45:00,
2013-02-14 05:46:00,25.2,-99.9,-100.00,South,191,4.2,5.1,-999,0.00,,---,0.00,VWS V14.01,2013-02-14 10:46:00,
2013-02-14 05:48:00,25.2,-99.9,-100.00,SSW,193,0.0,0.0,-999,0.00,,---,0.00,VWS V14.01,2013-02-14 10:48:00,
2013-02-14 05:50:00,25.7,-99.9,-100.00,SSW,193,0.0,0.0,-999,0.00,,---,0.00,VWS V14.01,2013-02-14 10:50:00,
2013-02-14 05:51:00,25.4,-99.9,-100.00,SSE,163,0.0,7.2,-999,0.00,,---,0.00,VWS V14.01,2013-02-14 10:51:00,
2013-02-14 05:53:00,25.7,-99.9,-100.00,SSE,163,0.0,0.0,-999,0.00,,---,0.00,VWS V14.01,2013-02-14 10:53:00,
2013-02-14 05:55:00,25.7,-99.9,-100.00,South,176,4.8,6.8,-999,0.00,,---,0.00,VWS V14.01,2013-02-14 10:55:00,
2013-02-14 05:57:00,26.0,-99.9,-100.00,South,181,9.6,9.6,-999,0.00,,---,0.00,VWS V14.01,2013-02-14 10:57:00,
2013-02-14 05:58:00,25.7,-99.9,-100.00,SSE,153,0.0,0.0,-999,0.00,,---,0.00,VWS V14.01,2013-02-14 10:58:00,
2013-02-14 06:00:00,25.7,-99.9,-100.00,ESE,117,0.0,0.0,-999,0.00,,---,0.00,VWS V14.01,2013-02-14 11:00:00,
2013-02-14 06:02:00,26.2,-99.9,-100.00,SE,145,5.8,7.6,-999,0.00,,---,0.00,VWS V14.01,2013-02-14 11:02:00,
2013-02-14 06:03:00,26.2,-99.9,-100.00,SSE,167,0.0,3.5,-999,0.00,,---,0.00,VWS V14.01,2013-02-14 11:03:00,
2013-02-14 06:05:00,26.0,-99.9,-100.00,South,176,5.5,6.0,-999,0.00,,---,0.00,VWS V14.01,2013-02-14 11:05:00,
2013-02-14 06:07:00,26.2,-99.9,-100.00,SSW,212,6.3,7.5,-999,0.00,,---,0.00,VWS V14.01,2013-02-14 11:07:00,
2013-02-14 06:08:00,26.5,-99.9,-100.00,South,187,7.0,7.6,-999,0.00,,---,0.00,VWS V14.01,2013-02-14 11:08:00,
2013-02-14 06:10:00,26.2,-99.9,-100.00,South,180,0.0,0.0,-999,0.00,,---,0.00,VWS V14.01,2013-02-14 11:10:00,
2013-02-14 06:12:00,26.0,-99.9,-100.00,South,180,0.0,0.0,-999,0.00,,---,0.00,VWS V14.01,2013-02-14 11:12:00,
2013-02-14 06:14:00,26.0,-99.9,-100.00,South,190,10.3,10.3,-999,0.00,,---,0.00,VWS V14.01,2013-02-14 11:14:00,
2013-02-14 06:15:00,26.7,-99.9,-100.00,SSE,163,5.3,6.8,-999,0.00,,---,0.00,VWS V14.01,2013-02-14 11:15:00,
2013-02-14 06:16:00,26.5,-99.9,-100.00,South,180,6.1,7.8,-999,0.00,,---,0.00,VWS V14.01,2013-02-14 11:16:00,
2013-02-14 06:17:00,26.5,-99.9,-100.00,SSW,211,4.7,7.4,-999,0.00,,---,0.00,VWS V14.01,2013-02-14 11:17:00,
2013-02-14 06:19:00,26.5,-99.9,-100.00,SSW,194,8.7,8.9,-999,0.00,,---,0.00,VWS V14.01,2013-02-14 11:19:00,
2013-02-14 06:20:00,26.5,-99.9,-100.00,SSE,160,8.7,10.3,-999,0.00,,---,0.00,VWS V14.01,2013-02-14 11:20:00,
2013-02-14 06:21:00,26.5,-99.9,-100.00,SE,143,7.3,10.3,-999,0.00,,---,0.00,VWS V14.01,2013-02-14 11:21:00,
2013-02-14 06:22:00,26.5,-99.9,-100.00,SW,232,0.0,0.0,-999,0.00,,---,0.00,VWS V14.01,2013-02-14 11:22:00,
2013-02-14 06:24:00,26.2,-99.9,-100.00,SSW,195,9.0,9.0,-999,0.00,,---,0.00,VWS V14.01,2013-02-14 11:24:00,
2013-02-14 06:26:00,27.0,-99.9,-100.00,SSW,195,9.6,9.6,-999,0.00,,---,0.00,VWS V14.01,2013-02-14 11:26:00,
2013-02-14 06:27:00,26.5,-99.9,-100.00,South,183,7.2,7.3,-999,0.00,,---,0.00,VWS V14.01,2013-02-14 11:27:00,
2013-02-14 06:29:00,27.0,-99.9,-100.00,SW,217,9.7,9.7,-999,0.00,,---,0.00,VWS V14.01,2013-02-14 11:29:00,
2013-02-14 06:31:00,26.7,-99.9,-100.00,South,186,3.4,9.1,-999,0.00,,---,0.00,VWS V14.01,2013-02-14 11:31:00,
2013-02-14 06:32:00,27.0,-99.9,-100.00,South,191,7.1,8.3,-999,0.00,,---,0.00,VWS V14.01,2013-02-14 11:32:00,
2013-02-14 06:34:00,27.0,-99.9,-100.00,SSW,194,4.8,7.6,-999,0.00,,---,0.00,VWS V14.01,2013-02-14 11:34:00,
2013-02-14 06:36:00,27.0,-99.9,-100.00,SSW,202,5.0,7.7,-999,0.00,,---,0.00,VWS V14.01,2013-02-14 11:36:00,
2013-02-14 06:37:00,26.5,-99.9,-100.00,South,190,7.7,7.7,-999,0.00,,---,0.00,VWS V14.01,2013-02-14 11:37:00,
2013-02-14 06:39:00,27.0,-99.9,-100.00,SW,226,5.3,7.6,-999,0.00,,---,0.00,VWS V14.01,2013-02-14 11:39:00,
2013-02-14 06:41:00,26.7,-99.9,-100.00,SSE,159,5.6,8.3,-999,0.00,,---,0.00,VWS V14.01,2013-02-14 11:41:00,
2013-02-14 06:43:00,27.0,-99.9,-100.00,South,176,5.7,8.4,-999,0.00,,---,0.00,VWS V14.01,2013-02-14 11:43:00,
2013-02-14 06:44:00,27.2,-99.9,-100.00,SE,138,6.9,7.6,-999,0.00,,---,0.00,VWS V14.01,2013-02-14 11:44:00,
2013-02-14 06:46:00,27.0,-99.9,-100.00,SSE,167,8.1,8.1,-999,0.00,,---,0.00,VWS V14.01,2013-02-14 11:46:00,
2013-02-14 06:48:00,27.2,-99.9,-100.00,South,172,4.7,8.0,-999,0.00,,---,0.00,VWS V14.01,2013-02-14 11:48:00,
2013-02-14 06:49:00,27.2,-99.9,-100.00,South,187,8.5,8.7,-999,0.00,,---,0.00,VWS V14.01,2013-02-14 11:49:00,
2013-02-14 06:51:00,27.2,-99.9,-100.00,South,190,7.0,9.4,-999,0.00,,---,0.00,VWS V14.01,2013-02-14 11:51:00,
2013-02-14 06:53:00,27.0,-99.9,-100.00,South,186,6.0,8.5,-999,0.00,,---,0.00,VWS V14.01,2013-02-14 11:53:00,
2013-02-14 06:54:00,27.2,-99.9,-100.00,South,183,7.2,7.4,-999,0.00,,---,0.00,VWS V14.01,2013-02-14 11:54:00,
2013-02-14 06:56:00,27.2,-99.9,-100.00,South,170,0.0,3.5,-999,0.00,,---,0.00,VWS V14.01,2013-02-14 11:56:00,
2013-02-14 06:58:00,27.0,-99.9,-100.00,SW,217,7.9,9.8,-999,0.00,,---,0.00,VWS V14.01,2013-02-14 11:58:00,
2013-02-14 06:59:00,27.2,-99.9,-100.00,SSE,148,3.2,3.2,-999,0.00,,---,0.00,VWS V14.01,2013-02-14 11:59:00,
2013-02-14 07:01:00,27.2,-99.9,-100.00,South,176,5.0,6.4,-999,0.00,,---,0.00,VWS V14.01,2013-02-14 12:01:00,
2013-02-14 07:03:00,27.2,-99.9,-100.00,South,173,5.2,6.6,-999,0.00,,---,0.00,VWS V14.01,2013-02-14 12:03:00,
2013-02-14 07:04:00,27.5,-99.9,-100.00,South,176,6.2,6.2,-999,0.00,,---,0.00,VWS V14.01,2013-02-14 12:04:00,
2013-02-14 07:06:00,27.5,-99.9,-100.00,South,180,4.8,6.7,-999,0.00,,---,0.00,VWS V14.01,2013-02-14 12:06:00,
2013-02-14 07:07:00,27.5,-99.9,-100.00,SW,215,3.3,6.7,-999,0.00,,---,0.00,VWS V14.01,2013-02-14 12:07:00,
2013-02-14 07:09:00,27.2,-99.9,-100.00,South,184,9.1,9.1,-999,0.00,,---,0.00,VWS V14.01,2013-02-14 12:09:00,
2013-02-14 07:10:00,27.5,-99.9,-100.00,South,188,10.0,10.0,-999,0.00,,---,0.00,VWS V14.01,2013-02-14 12:10:00,
2013-02-14 07:11:00,27.7,-99.9,-100.00,South,183,7.7,8.3,-999,0.00,,---,0.00,VWS V14.01,2013-02-14 12:11:00,
2013-02-14 07:12:00,27.5,-99.9,-100.00,SE,146,8.7,9.3,-999,0.00,,---,0.00,VWS V14.01,2013-02-14 12:12:00,
2013-02-14 07:14:00,27.7,-99.9,-100.00,South,186,9.4,9.4,-999,0.00,,---,0.00,VWS V14.01,2013-02-14 12:14:00,
2013-02-14 07:15:00,27.7,-99.9,-100.00,SSW,193,6.1,10.6,-999,0.00,,---,0.00,VWS V14.01,2013-02-14 12:15:00,
2013-02-14 07:16:00,27.5,-99.9,-100.00,South,169,5.8,5.8,-999,0.00,,---,0.00,VWS V14.01,2013-02-14 12:16:00,
2013-02-14 07:17:00,27.7,-99.9,-100.00,South,172,9.1,9.1,-999,0.00,,---,0.00,VWS V14.01,2013-02-14 12:17:00,
2013-02-14 07:19:00,27.5,-99.9,-100.00,SSE,149,4.8,10.1,-999,0.00,,---,0.00,VWS V14.01,2013-02-14 12:19:00,
2013-02-14 07:20:00,27.2,-99.9,-100.00,South,174,6.7,7.4,-999,0.00,,---,0.00,VWS V14.01,2013-02-14 12:20:00,
2013-02-14 07:21:00,27.5,-99.9,-100.00,South,169,7.5,8.1,-999,0.00,,---,0.00,VWS V14.01,2013-02-14 12:21:00,
2013-02-14 07:22:00,27.5,-99.9,-100.00,South,190,5.3,8.1,-999,0.00,,---,0.00,VWS V14.01,2013-02-14 12:22:00,
2013-02-14 07:24:00,27.5,-99.9,-100.00,SSW,193,8.0,11.1,-999,0.00,,---,0.00,VWS V14.01,2013-02-14 12:24:00,
2013-02-14 07:25:00,27.7,-99.9,-100.00,SSW,202,6.7,10.2,-999,0.00,,---,0.00,VWS V14.01,2013-02-14 12:25:00,
2013-02-14 07:26:00,27.2,-99.9,-100.00,SSW,193,3.5,5.5,-999,0.00,,---,0.00,VWS V14.01,2013-02-14 12:26:00,
2013-02-14 07:27:00,27.7,-99.9,-100.00,South,186,3.4,5.5,-999,0.00,,---,0.00,VWS V14.01,2013-02-14 12:27:00,
2013-02-14 07:30:00,27.5,-99.9,-100.00,ESE,103,2.5,5.1,-999,0.00,,---,0.00,VWS V14.01,2013-02-14 12:30:00,
2013-02-14 07:32:00,27.7,-99.9,-100.00,SSE,152,4.4,5.9,-999,0.00,,---,0.00,VWS V14.01,2013-02-14 12:32:00,
2013-02-14 07:35:00,27.7,-99.9,-100.00,South,174,7.0,9.3,-999,0.00,,---,0.00,VWS V14.01,2013-02-14 12:35:00,
2013-02-14 07:37:00,28.0,-99.9,-100.00,SSW,193,7.0,7.1,-999,0.00,,---,0.00,VWS V14.01,2013-02-14 12:37:00,
2013-02-14 07:40:00,27.7,-99.9,-100.00,SSW,198,6.1,6.3,-999,0.00,,---,0.00,VWS V14.01,2013-02-14 12:40:00,
2013-02-14 07:42:00,28.0,-99.9,-100.00,SSE,165,6.1,8.7,-999,0.00,,---,0.00,VWS V14.01,2013-02-14 12:42:00,
2013-02-14 07:45:00,28.2,-99.9,-100.00,SE,142,4.2,4.5,-999,0.00,,---,0.00,VWS V14.01,2013-02-14 12:45:00,
2013-02-14 07:47:00,28.0,-99.9,-100.00,SE,142,0.0,2.4,-999,0.00,,---,0.00,VWS V14.01,2013-02-14 12:47:00,
2013-02-14 07:50:00,28.0,-99.9,-100.00,SSW,197,0.0,0.0,-999,0.00,,---,0.00,VWS V14.01,2013-02-14 12:50:00,
2013-02-14 07:51:00,28.0,-99.9,-100.00,SSW,197,3.1,3.1,-999,0.00,,---,0.00,VWS V14.01,2013-02-14 12:51:00,
2013-02-14 07:52:00,28.5,-99.9,-100.00,South,191,0.0,4.5,-999,0.00,,---,0.00,VWS V14.01,2013-02-14 12:52:00,
2013-02-14 07:53:00,28.0,-99.9,-100.00,SE,139,0.0,3.3,-999,0.00,,---,0.00,VWS V14.01,2013-02-14 12:53:00,
2013-02-14 07:56:00,28.0,-99.9,-100.00,South,187,4.9,7.6,-999,0.00,,---,0.00,VWS V14.01,2013-02-14 12:56:00,
2013-02-14 07:57:00,28.2,-99.9,-100.00,South,172,6.4,8.2,-999,0.00,,---,0.00,VWS V14.01,2013-02-14 12:57:00,
2013-02-14 07:58:00,28.2,-99.9,-100.00,ESE,122,4.8,6.4,-999,0.00,,---,0.00,VWS V14.01,2013-02-14 12:58:00,
2013-02-14 08:01:00,28.2,-99.9,-100.00,SW,222,0.0,0.0,-999,0.00,,---,0.00,VWS V14.01,2013-02-14 13:01:00,
2013-02-14 08:02:00,28.8,-99.9,-100.00,SW,222,0.0,0.0,-999,0.00,,---,0.00,VWS V14.01,2013-02-14 13:02:00,
2013-02-14 08:03:00,28.0,-99.9,-100.00,SW,222,0.0,0.0,-999,0.00,,---,0.00,VWS V14.01,2013-02-14 13:03:00,
2013-02-14 08:06:00,28.5,-99.9,-100.00,SSE,162,3.4,5.0,-999,0.00,,---,0.00,VWS V14.01,2013-02-14 13:06:00,
2013-02-14 08:07:00,28.5,-99.9,-100.00,South,177,0.0,0.0,-999,0.00,,---,0.00,VWS V14.01,2013-02-14 13:07:00,
2013-02-14 08:08:00,28.0,-99.9,-100.00,South,177,0.0,0.0,-999,0.00,,---,0.00,VWS V14.01,2013-02-14 13:08:00,
2013-02-14 08:11:00,28.5,-99.9,-100.00,South,177,0.0,0.0,-999,0.00,,---,0.00,VWS V14.01,2013-02-14 13:11:00,
2013-02-14 08:12:00,28.8,-99.9,-100.00,South,177,0.0,0.0,-999,0.00,,---,0.00,VWS V14.01,2013-02-14 13:12:00,
2013-02-14 08:13:00,28.5,-99.9,-100.00,South,179,5.1,5.1,-999,0.00,,---,0.00,VWS V14.01,2013-02-14 13:13:00,
2013-02-14 08:16:00,28.8,-99.9,-100.00,ESE,121,0.0,6.6,-999,0.00,,---,0.00,VWS V14.01,2013-02-14 13:16:00,
2013-02-14 08:17:00,28.8,-99.9,-100.00,SE,146,4.2,6.3,-999,0.00,,---,0.00,VWS V14.01,2013-02-14 13:17:00,
2013-02-14 08:18:00,28.8,-99.9,-100.00,South,177,3.4,6.8,-999,0.00,,---,0.00,VWS V14.01,2013-02-14 13:18:00,
2013-02-14 08:21:00,28.8,-99.9,-100.00,SE,139,0.0,0.0,-999,0.00,,---,0.00,VWS V14.01,2013-02-14 13:21:00,
2013-02-14 08:22:00,29.0,-99.9,-100.00,SE,139,0.0,0.0,-999,0.00,,---,0.00,VWS V14.01,2013-02-14 13:22:00,
2013-02-14 08:23:00,28.8,-99.9,-100.00,SE,139,0.0,0.0,-999,0.00,,---,0.00,VWS V14.01,2013-02-14 13:23:00,
2013-02-14 08:26:00,28.8,-99.9,-100.00,SSE,167,3.5,7.8,-999,0.00,,---,0.00,VWS V14.01,2013-02-14 13:26:00,
2013-02-14 08:27:00,28.8,-99.9,-100.00,SSE,167,1.7,7.8,-999,0.00,,---,0.00,VWS V14.01,2013-02-14 13:27:00,
2013-02-14 08:28:00,28.8,-99.9,-100.00,SSE,167,0.0,0.0,-999,0.00,,---,0.00,VWS V14.01,2013-02-14 13:28:00,
2013-02-14 08:31:00,29.3,-99.9,-100.00,ESE,105,0.0,0.0,-999,0.00,,---,0.00,VWS V14.01,2013-02-14 13:31:00,
2013-02-14 08:32:00,29.3,-99.9,-100.00,ESE,105,0.0,0.0,-999,0.00,,---,0.00,VWS V14.01,2013-02-14 13:32:00,
2013-02-14 08:33:00,29.0,-99.9,-100.00,ESE,105,0.0,0.0,-999,0.00,,---,0.00,VWS V14.01,2013-02-14 13:33:00,
2013-02-14 08:37:00,29.0,-99.9,-100.00,SSE,159,3.5,7.3,-999,0.00,,---,0.00,VWS V14.01,2013-02-14 13:37:00,
2013-02-14 08:38:00,29.3,-99.9,-100.00,SSE,150,6.0,10.9,-999,0.00,,---,0.00,VWS V14.01,2013-02-14 13:38:00,
2013-02-14 08:42:00,29.5,-99.9,-100.00,ESE,103,0.0,8.0,-999,0.00,,---,0.00,VWS V14.01,2013-02-14 13:42:00,
2013-02-14 08:43:00,29.5,-99.9,-100.00,South,190,7.2,8.8,-999,0.00,,---,0.00,VWS V14.01,2013-02-14 13:43:00,
2013-02-14 08:47:00,29.5,-99.9,-100.00,SSW,202,6.8,9.1,-999,0.00,,---,0.00,VWS V14.01,2013-02-14 13:47:00,
2013-02-14 08:48:00,30.3,-99.9,-100.00,South,188,8.3,8.3,-999,0.00,,---,0.00,VWS V14.01,2013-02-14 13:48:00,
2013-02-14 08:49:00,30.3,-99.9,-100.00,SSW,194,5.0,9.1,-999,0.00,,---,0.00,VWS V14.01,2013-02-14 13:49:00,
2013-02-14 08:52:00,30.3,-99.9,-100.00,SSE,148,3.5,3.5,-999,0.00,,---,0.00,VWS V14.01,2013-02-14 13:52:00,
2013-02-14 08:53:00,30.3,-99.9,-100.00,SSE,155,6.5,7.5,-999,0.00,,---,0.00,VWS V14.01,2013-02-14 13:53:00,
2013-02-14 08:54:00,30.3,-99.9,-100.00,South,179,7.0,7.5,-999,0.00,,---,0.00,VWS V14.01,2013-02-14 13:54:00,
2013-02-14 08:57:00,30.5,-99.9,-100.00,ESE,111,2.2,5.2,-999,0.00,,---,0.00,VWS V14.01,2013-02-14 13:57:00,
2013-02-14 08:58:00,30.8,-99.9,-100.00,SSW,200,0.0,0.0,-999,0.00,,---,0.00,VWS V14.01,2013-02-14 13:58:00,
2013-02-14 08:59:00,30.3,-99.9,-100.00,South,183,5.2,12.1,-999,0.00,,---,0.00,VWS V14.01,2013-02-14 13:59:00,
2013-02-14 09:02:00,30.5,-99.9,-100.00,SE,141,5.2,6.3,-999,0.00,,---,0.00,VWS V14.01,2013-02-14 14:02:00,
2013-02-14 09:03:00,30.8,-99.9,-100.00,South,187,8.8,10.7,-999,0.00,,---,0.00,VWS V14.01,2013-02-14 14:03:00,
2013-02-14 09:04:00,31.0,-99.9,-100.00,South,184,4.7,8.8,-999,0.00,,---,0.00,VWS V14.01,2013-02-14 14:04:00,
2013-02-14 09:07:00,31.0,-99.9,-100.00,SSW,194,5.2,5.8,-999,0.00,,---,0.00,VWS V14.01,2013-02-14 14:07:00,
2013-02-14 09:08:00,31.0,-99.9,-100.00,South,191,4.7,5.8,-999,0.00,,---,0.00,VWS V14.01,2013-02-14 14:08:00,
2013-02-14 09:09:00,30.8,-99.9,-100.00,South,181,0.0,9.6,-999,0.00,,---,0.00,VWS V14.01,2013-02-14 14:09:00,
2013-02-14 09:10:00,31.0,-99.9,-100.00,SSW,205,9.6,12.7,-999,0.00,,---,0.00,VWS V14.01,2013-02-14 14:10:00,
2013-02-14 09:13:00,31.0,-99.9,-100.00,South,173,9.5,9.5,-999,0.00,,---,0.00,VWS V14.01,2013-02-14 14:13:00,
2013-02-14 09:14:00,30.8,-99.9,-100.00,South,179,7.0,9.2,-999,0.00,,---,0.00,VWS V14.01,2013-02-14 14:14:00,
2013-02-14 09:15:00,30.8,-99.9,-100.00,South,187,6.0,6.3,-999,0.00,,---,0.00,VWS V14.01,2013-02-14 14:15:00,
2013-02-14 09:18:00,31.0,-99.9,-100.00,South,179,4.8,8.8,-999,0.00,,---,0.00,VWS V14.01,2013-02-14 14:18:00,
2013-02-14 09:19:00,31.0,-99.9,-100.00,ESE,114,3.5,10.5,-999,0.00,,---,0.00,VWS V14.01,2013-02-14 14:19:00,
2013-02-14 09:20:00,31.5,-99.9,-100.00,ESE,108,0.0,0.0,-999,0.00,,---,0.00,VWS V14.01,2013-02-14 14:20:00,
2013-02-14 09:23:00,31.7,-99.9,-100.00,East,98,0.0,7.3,-999,0.00,,---,0.00,VWS V14.01,2013-02-14 14:23:00,
2013-02-14 09:24:00,31.3,-99.9,-100.00,SSE,167,8.7,8.8,-999,0.00,,---,0.00,VWS V14.01,2013-02-14 14:24:00,
2013-02-14 09:25:00,31.5,-99.9,-100.00,SSE,158,7.0,8.0,-999,0.00,,---,0.00,VWS V14.01,2013-02-14 14:25:00,
2013-02-14 09:28:00,31.3,-99.9,-100.00,SSE,152,6.5,8.9,-999,0.00,,---,0.00,VWS V14.01,2013-02-14 14:28:00,
2013-02-14 09:29:00,31.3,-99.9,-100.00,SE,146,5.5,7.3,-999,0.00,,---,0.00,VWS V14.01,2013-02-14 14:29:00,
2013-02-14 09:30:00,31.3,-99.9,-100.00,South,172,5.9,9.5,-999,0.00,,---,0.00,VWS V14.01,2013-02-14 14:30:00,
2013-02-14 09:33:00,31.7,-99.9,-100.00,SSE,166,8.2,8.2,-999,0.00,,---,0.00,VWS V14.01,2013-02-14 14:33:00,
2013-02-14 09:34:00,31.7,-99.9,-100.00,SSE,166,8.5,8.5,-999,0.00,,---,0.00,VWS V14.01,2013-02-14 14:34:00,
2013-02-14 09:35:00,31.5,-99.9,-100.00,South,186,8.3,8.3,-999,0.00,,---,0.00,VWS V14.01,2013-02-14 14:35:00,
2013-02-14 09:38:00,31.7,-99.9,-100.00,SSW,204,4.1,7.3,-999,0.00,,---,0.00,VWS V14.01,2013-02-14 14:38:00,
2013-02-14 09:39:00,31.7,-99.9,-100.00,SE,136,4.4,8.5,-999,0.00,,---,0.00,VWS V14.01,2013-02-14 14:39:00,
2013-02-14 09:40:00,32.0,-99.9,-100.00,South,177,7.7,8.3,-999,0.00,,---,0.00,VWS V14.01,2013-02-14 14:40:00,
2013-02-14 09:43:00,31.7,-99.9,-100.00,South,179,7.9,8.0,-999,0.00,,---,0.00,VWS V14.01,2013-02-14 14:43:00,
2013-02-14 09:44:00,31.7,-99.9,-100.00,South,191,4.6,6.2,-999,0.00,,---,0.00,VWS V14.01,2013-02-14 14:44:00,
2013-02-14 09:45:00,31.7,-99.9,-100.00,South,177,8.1,8.3,-999,0.00,,---,0.00,VWS V14.01,2013-02-14 14:45:00,
2013-02-14 09:48:00,32.0,-99.9,-100.00,South,191,6.2,6.2,-999,0.00,,---,0.00,VWS V14.01,2013-02-14 14:48:00,
2013-02-14 09:49:00,32.3,-99.9,-100.00,SSW,195,8.7,8.7,-999,0.00,,---,0.00,VWS V14.01,2013-02-14 14:49:00,
2013-02-14 09:50:00,32.0,-99.9,-100.00,South,184,7.8,10.0,-999,0.00,,---,0.00,VWS V14.01,2013-02-14 14:50:00,
2013-02-14 09:53:00,32.5,-99.9,-100.00,South,177,6.6,6.6,-999,0.00,,---,0.00,VWS V14.01,2013-02-14 14:53:00,
2013-02-14 09:54:00,32.5,-99.9,-100.00,SW,215,4.6,8.0,-999,0.00,,---,0.00,VWS V14.01,2013-02-14 14:54:00,
2013-02-14 09:55:00,32.3,-99.9,-100.00,South,179,6.2,8.2,-999,0.00,,---,0.00,VWS V14.01,2013-02-14 14:55:00,
2013-02-14 09:58:00,32.3,-99.9,-100.00,SSW,200,8.4,8.4,-999,0.00,,---,0.00,VWS V14.01,2013-02-14 14:58:00,
2013-02-14 09:59:00,32.8,-99.9,-100.00,SSE,148,7.6,8.4,-999,0.00,,---,0.00,VWS V14.01,2013-02-14 14:59:00,
2013-02-14 10:01:00,32.5,-99.9,-100.00,SW,224,9.5,9.5,-999,0.00,,---,0.00,VWS V14.01,2013-02-14 15:01:00,
2013-02-14 10:03:00,32.5,-99.9,-100.00,South,190,7.5,7.5,-999,0.00,,---,0.00,VWS V14.01,2013-02-14 15:03:00,
2013-02-14 10:04:00,32.5,-99.9,-100.00,SW,215,8.9,8.9,-999,0.00,,---,0.00,VWS V14.01,2013-02-14 15:04:00,
2013-02-14 10:06:00,32.3,-99.9,-100.00,South,187,5.5,7.4,-999,0.00,,---,0.00,VWS V14.01,2013-02-14 15:06:00,
2013-02-14 10:08:00,32.3,-99.9,-100.00,SSE,159,7.3,8.0,-999,0.00,,---,0.00,VWS V14.01,2013-02-14 15:08:00,
2013-02-14 10:09:00,32.5,-99.9,-100.00,SSE,156,6.1,8.1,-999,0.00,,---,0.00,VWS V14.01,2013-02-14 15:09:00,
2013-02-14 10:11:00,32.3,-99.9,-100.00,South,180,10.9,10.9,-999,0.00,,---,0.00,VWS V14.01,2013-02-14 15:11:00,
2013-02-14 10:13:00,32.5,-99.9,-100.00,South,180,0.0,6.3,-999,0.00,,---,0.00,VWS V14.01,2013-02-14 15:13:00,
2013-02-14 10:14:00,32.5,-99.9,-100.00,South,190,8.6,8.6,-999,0.00,,---,0.00,VWS V14.01,2013-02-14 15:14:00,
2013-02-14 10:15:00,32.5,-99.9,-100.00,SW,225,4.1,8.6,-999,0.00,,---,0.00,VWS V14.01,2013-02-14 15:15:00,
2013-02-14 10:16:00,32.3,-99.9,-100.00,South,177,5.3,10.3,-999,0.00,,---,0.00,VWS V14.01,2013-02-14 15:16:00,
2013-02-14 10:18:00,32.5,-99.9,-100.00,South,169,0.0,5.4,-999,0.00,,---,0.00,VWS V14.01,2013-02-14 15:18:00,
2013-02-14 10:19:00,32.5,-99.9,-100.00,South,169,0.0,5.4,-999,0.00,,---,0.00,VWS V14.01,2013-02-14 15:19:00,
2013-02-14 10:20:00,32.8,-99.9,-100.00,SSW,207,4.3,6.5,-999,0.00,,---,0.00,VWS V14.01,2013-02-14 15:20:00,
2013-02-14 10:21:00,32.5,-99.9,-100.00,SSE,150,4.8,10.0,-999,0.00,,---,0.00,VWS V14.01,2013-02-14 15:21:00,
2013-02-14 10:23:00,33.0,-99.9,-100.00,SW,225,4.7,7.4,-999,0.00,,---,0.00,VWS V14.01,2013-02-14 15:23:00,
2013-02-14 10:24:00,32.8,-99.9,-100.00,SSE,160,4.9,7.4,-999,0.00,,---,0.00,VWS V14.01,2013-02-14 15:24:00,
2013-02-14 10:25:00,33.3,-99.9,-100.00,SSW,208,0.0,5.3,-999,0.00,,---,0.00,VWS V14.01,2013-02-14 15:25:00,
2013-02-14 10:26:00,32.5,-99.9,-100.00,SSW,208,0.0,0.0,-999,0.00,,---,0.00,VWS V14.01,2013-02-14 15:26:00,
2013-02-14 10:28:00,32.8,-99.9,-100.00,SSW,201,0.0,0.0,-999,0.00,,---,0.00,VWS V14.01,2013-02-14 15:28:00,
2013-02-14 10:29:00,32.8,-99.9,-100.00,SSW,201,0.0,0.0,-999,0.00,,---,0.00,VWS V14.01,2013-02-14 15:29:00,
2013-02-14 10:30:00,33.3,-99.9,-100.00,SSW,201,0.0,0.0,-999,0.00,,---,0.00,VWS V14.01,2013-02-14 15:30:00,
2013-02-14 10:31:00,33.0,-99.9,-100.00,SSE,163,6.6,6.6,-999,0.00,,---,0.00,VWS V14.01,2013-02-14 15:31:00,
2013-02-14 10:34:00,33.3,-99.9,-100.00,SSW,197,4.5,8.7,-999,0.00,,---,0.00,VWS V14.01,2013-02-14 15:34:00,
2013-02-14 10:35:00,33.3,-99.9,-100.00,SSW,197,0.0,0.0,-999,0.00,,---,0.00,VWS V14.01,2013-02-14 15:35:00,
2013-02-14 10:36:00,33.5,-99.9,-100.00,South,181,9.4,9.5,-999,0.00,,---,0.00,VWS V14.01,2013-02-14 15:36:00,
2013-02-14 10:39:00,33.8,-99.9,-100.00,SSW,198,4.2,6.5,-999,0.00,,---,0.00,VWS V14.01,2013-02-14 15:39:00,
2013-02-14 10:40:00,33.3,-99.9,-100.00,South,181,11.2,11.2,-999,0.00,,---,0.00,VWS V14.01,2013-02-14 15:40:00,
2013-02-14 10:42:00,33.8,-99.9,-100.00,SSW,197,7.9,9.2,-999,0.00,,---,0.00,VWS V14.01,2013-02-14 15:42:00,
2013-02-14 10:44:00,33.6,-99.9,-100.00,SSW,198,5.7,7.5,-999,0.00,,---,0.00,VWS V14.01,2013-02-14 15:44:00,
2013-02-14 10:45:00,33.8,-99.9,-100.00,South,173,9.3,9.3,-999,0.00,,---,0.00,VWS V14.01,2013-02-14 15:45:00,
2013-02-14 10:47:00,34.0,-99.9,-100.00,SW,225,9.6,9.6,-999,0.00,,---,0.00,VWS V14.01,2013-02-14 15:47:00,
2013-02-14 10:49:00,34.0,-99.9,-100.00,SSW,205,9.0,9.2,-999,0.00,,---,0.00,VWS V14.01,2013-02-14 15:49:00,
2013-02-14 10:50:00,34.0,-99.9,-100.00,South,191,7.1,8.0,-999,0.00,,---,0.00,VWS V14.01,2013-02-14 15:50:00,
2013-02-14 10:52:00,34.0,-99.9,-100.00,SSW,200,8.8,10.4,-999,0.00,,---,0.00,VWS V14.01,2013-02-14 15:52:00,
2013-02-14 10:54:00,34.0,-99.9,-100.00,SSW,197,8.3,8.9,-999,0.00,,---,0.00,VWS V14.01,2013-02-14 15:54:00,
2013-02-14 10:55:00,34.0,-99.9,-100.00,SW,228,7.5,9.1,-999,0.00,,---,0.00,VWS V14.01,2013-02-14 15:55:00,
2013-02-14 10:57:00,34.8,-99.9,-100.00,SW,219,4.2,8.0,-999,0.00,,---,0.00,VWS V14.01,2013-02-14 15:57:00,
2013-02-14 10:59:00,34.0,-99.9,-100.00,South,188,7.4,7.4,-999,0.00,,---,0.00,VWS V14.01,2013-02-14 15:59:00,
2013-02-14 11:00:00,34.1,-99.9,-100.00,South,180,4.5,6.6,-999,0.00,,---,0.00,VWS V14.01,2013-02-14 16:00:00,
2013-02-14 11:02:00,34.1,-99.9,-100.00,SSW,198,5.5,5.5,-999,0.00,,---,0.00,VWS V14.01,2013-02-14 16:02:00,
2013-02-14 11:04:00,33.8,-99.9,-100.00,SSW,208,6.3,6.4,-999,0.00,,---,0.00,VWS V14.01,2013-02-14 16:04:00,
2013-02-14 11:05:00,34.3,-99.9,-100.00,South,173,0.0,4.7,-999,0.00,,---,0.00,VWS V14.01,2013-02-14 16:05:00,
2013-02-14 11:08:00,34.6,-99.9,-100.00,South,183,8.2,9.7,-999,0.00,,---,0.00,VWS V14.01,2013-02-14 16:08:00,
2013-02-14 11:09:00,34.5,-99.9,-100.00,South,184,9.5,12.4,-999,0.00,,---,0.00,VWS V14.01,2013-02-14 16:09:00,
2013-02-14 11:10:00,34.6,-99.9,-100.00,SSW,200,7.3,8.5,-999,0.00,,---,0.00,VWS V14.01,2013-02-14 16:10:00,
2013-02-14 11:13:00,34.7,-99.9,-100.00,SW,221,9.6,10.6,-999,0.00,,---,0.00,VWS V14.01,2013-02-14 16:13:00,
2013-02-14 11:14:00,34.7,-99.9,-100.00,SSW,193,6.6,11.0,-999,0.00,,---,0.00,VWS V14.01,2013-02-14 16:14:00,
2013-02-14 11:15:00,35.0,-99.9,-100.00,South,170,7.9,10.7,-999,0.00,,---,0.00,VWS V14.01,2013-02-14 16:15:00,
2013-02-14 11:18:00,34.6,-99.9,-100.00,South,190,9.1,12.4,-999,0.00,,---,0.00,VWS V14.01,2013-02-14 16:18:00,
2013-02-14 11:19:00,34.9,-99.9,-100.00,SSW,193,7.8,9.1,-999,0.00,,---,0.00,VWS V14.01,2013-02-14 16:19:00,
2013-02-14 11:20:00,34.6,-99.9,-100.00,SSW,202,7.5,9.8,-999,0.00,,---,0.00,VWS V14.01,2013-02-14 16:20:00,
2013-02-14 11:23:00,34.6,-99.9,-100.00,South,184,7.0,7.0,-999,0.00,,---,0.00,VWS V14.01,2013-02-14 16:23:00,
2013-02-14 11:24:00,34.9,-99.9,-100.00,SSW,198,5.4,7.0,-999,0.00,,---,0.00,VWS V14.01,2013-02-14 16:24:00,
2013-02-14 11:25:00,34.3,-99.9,-100.00,SSW,194,9.8,9.8,-999,0.00,,---,0.00,VWS V14.01,2013-02-14 16:25:00,
2013-02-14 11:26:00,34.6,-99.9,-100.00,SE,127,6.9,13.5,-999,0.00,,---,0.00,VWS V14.01,2013-02-14 16:26:00,
2013-02-14 11:28:00,35.3,-99.9,-100.00,SSW,204,8.6,10.6,-999,0.00,,---,0.00,VWS V14.01,2013-02-14 16:28:00,
2013-02-14 11:29:00,35.1,-99.9,-100.00,SW,219,7.3,9.3,-999,0.00,,---,0.00,VWS V14.01,2013-02-14 16:29:00,
2013-02-14 11:30:00,35.1,-99.9,-100.00,WSW,246,4.1,9.3,-999,0.00,,---,0.00,VWS V14.01,2013-02-14 16:30:00,
2013-02-14 11:31:00,35.1,-99.9,-100.00,SW,222,5.4,7.6,-999,0.00,,---,0.00,VWS V14.01,2013-02-14 16:31:00,
2013-02-14 11:33:00,35.1,-99.9,-100.00,South,179,7.5,7.5,-999,0.00,,---,0.00,VWS V14.01,2013-02-14 16:33:00,
2013-02-14 11:34:00,34.6,-99.9,-100.00,South,187,10.9,12.0,-999,0.00,,---,0.00,VWS V14.01,2013-02-14 16:34:00,
2013-02-14 11:35:00,35.1,-99.9,-100.00,South,188,11.9,11.9,-999,0.00,,---,0.00,VWS V14.01,2013-02-14 16:35:00,
2013-02-14 11:36:00,34.6,-99.9,-100.00,WSW,239,10.4,11.9,-999,0.00,,---,0.00,VWS V14.01,2013-02-14 16:36:00,
2013-02-14 11:39:00,34.9,-99.9,-100.00,SW,226,6.6,9.1,-999,0.00,,---,0.00,VWS V14.01,2013-02-14 16:39:00,
2013-02-14 11:40:00,34.9,-99.9,-100.00,South,187,7.0,7.7,-999,0.00,,---,0.00,VWS V14.01,2013-02-14 16:40:00,
2013-02-14 11:41:00,34.3,-99.9,-100.00,SSW,194,8.6,9.1,-999,0.00,,---,0.00,VWS V14.01,2013-02-14 16:41:00,
2013-02-14 11:44:00,35.1,-99.9,-100.00,South,181,6.8,7.8,-999,0.00,,---,0.00,VWS V14.01,2013-02-14 16:44:00,
2013-02-14 11:45:00,35.1,-99.9,-100.00,South,191,6.4,9.8,-999,0.00,,---,0.00,VWS V14.01,2013-02-14 16:45:00,
2013-02-14 11:46:00,34.9,-99.9,-100.00,South,191,8.8,9.8,-999,0.00,,---,0.00,VWS V14.01,2013-02-14 16:46:00,
2013-02-14 11:49:00,35.2,-99.9,-100.00,SSE,162,7.2,8.9,-999,0.00,,---,0.00,VWS V14.01,2013-02-14 16:49:00,
2013-02-14 11:50:00,35.3,-99.9,-100.00,South,184,7.8,8.1,-999,0.00,,---,0.00,VWS V14.01,2013-02-14 16:50:00,
2013-02-14 11:51:00,35.3,-99.9,-100.00,South,177,8.6,10.7,-999,0.00,,---,0.00,VWS V14.01,2013-02-14 16:51:00,
2013-02-14 11:54:00,35.1,-99.9,-100.00,South,191,6.8,10.3,-999,0.00,,---,0.00,VWS V14.01,2013-02-14 16:54:00,
2013-02-14 11:55:00,35.6,-99.9,-100.00,SSW,200,7.1,9.3,-999,0.00,,---,0.00,VWS V14.01,2013-02-14 16:55:00,
2013-02-14 11:56:00,35.5,-99.9,-100.00,South,184,9.3,9.3,-999,0.00,,---,0.00,VWS V14.01,2013-02-14 16:56:00,
2013-02-14 11:59:00,36.8,-99.9,-100.00,South,179,6.6,8.8,-999,0.00,,---,0.00,VWS V14.01,2013-02-14 16:59:00,
2013-02-14 12:00:00,36.6,-99.9,-100.00,SE,138,7.5,12.2,-999,0.00,,---,0.00,VWS V14.01,2013-02-14 17:00:00,
2013-02-14 12:01:00,36.8,-99.9,-100.00,South,179,8.8,9.3,-999,0.00,,---,0.00,VWS V14.01,2013-02-14 17:01:00,
2013-02-14 12:04:00,38.8,-99.9,-100.00,SSW,193,6.9,6.9,-999,0.00,,---,0.00,VWS V14.01,2013-02-14 17:04:00,
2013-02-14 12:05:00,38.5,-99.9,-100.00,South,176,5.8,9.4,-999,0.00,,---,0.00,VWS V14.01,2013-02-14 17:05:00,
2013-02-14 12:06:00,38.8,-99.9,-100.00,South,186,6.1,7.1,-999,0.00,,---,0.00,VWS V14.01,2013-02-14 17:06:00,
2013-02-14 12:09:00,37.6,-99.9,-100.00,South,180,6.1,11.6,-999,0.00,,---,0.00,VWS V14.01,2013-02-14 17:09:00,
2013-02-14 12:10:00,38.1,-99.9,-100.00,SW,214,3.0,6.1,-999,0.00,,---,0.00,VWS V14.01,2013-02-14 17:10:00,
2013-02-14 12:11:00,38.8,-99.9,-100.00,South,169,8.0,8.6,-999,0.00,,---,0.00,VWS V14.01,2013-02-14 17:11:00,
2013-02-14 12:14:00,37.3,-99.9,-100.00,SSE,163,8.3,13.2,-999,0.00,,---,0.00,VWS V14.01,2013-02-14 17:14:00,
2013-02-14 12:15:00,37.3,-99.9,-100.00,South,181,9.1,13.2,-999,0.00,,---,0.00,VWS V14.01,2013-02-14 17:15:00,
2013-02-14 12:16:00,37.8,-99.9,-100.00,SSW,211,8.1,9.5,-999,0.00,,---,0.00,VWS V14.01,2013-02-14 17:16:00,
2013-02-14 12:19:00,37.1,-99.9,-100.00,SSW,204,6.6,13.0,-999,0.00,,---,0.00,VWS V14.01,2013-02-14 17:19:00,
2013-02-14 12:20:00,37.1,-99.9,-100.00,South,183,7.1,7.1,-999,0.00,,---,0.00,VWS V14.01,2013-02-14 17:20:00,
2013-02-14 12:21:00,38.1,-99.9,-100.00,South,183,6.8,7.7,-999,0.00,,---,0.00,VWS V14.01,2013-02-14 17:21:00,
2013-02-14 12:25:00,37.1,-99.9,-100.00,South,186,9.1,11.4,-999,0.00,,---,0.00,VWS V14.01,2013-02-14 17:25:00,
2013-02-14 12:26:00,37.1,-99.9,-100.00,SSW,194,7.7,13.3,-999,0.00,,---,0.00,VWS V14.01,2013-02-14 17:26:00,
2013-02-14 12:27:00,37.3,-99.9,-100.00,SSE,165,11.0,13.3,-999,0.00,,---,0.00,VWS V14.01,2013-02-14 17:27:00,
2013-02-14 12:30:00,37.1,-99.9,-100.00,SSE,155,11.1,13.4,-999,0.00,,---,0.00,VWS V14.01,2013-02-14 17:30:00,
2013-02-14 12:31:00,37.1,-99.9,-100.00,South,174,9.9,12.5,-999,0.00,,---,0.00,VWS V14.01,2013-02-14 17:31:00,
2013-02-14 12:32:00,37.3,-99.9,-100.00,SSW,195,8.5,12.5,-999,0.00,,---,0.00,VWS V14.01,2013-02-14 17:32:00,
2013-02-14 12:35:00,37.1,-99.9,-100.00,South,172,9.2,14.6,-999,0.00,,---,0.00,VWS V14.01,2013-02-14 17:35:00,
2013-02-14 12:36:00,37.3,-99.9,-100.00,WSW,242,7.5,9.9,-999,0.00,,---,0.00,VWS V14.01,2013-02-14 17:36:00,
2013-02-14 12:37:00,37.3,-99.9,-100.00,SSW,193,11.6,12.1,-999,0.00,,---,0.00,VWS V14.01,2013-02-14 17:37:00,
2013-02-14 12:40:00,36.8,-99.9,-100.00,SSW,211,10.4,13.2,-999,0.00,,---,0.00,VWS V14.01,2013-02-14 17:40:00,
2013-02-14 12:41:00,36.6,-99.9,-100.00,SW,215,5.3,7.6,-999,0.00,,---,0.00,VWS V14.01,2013-02-14 17:41:00,
2013-02-14 12:42:00,36.6,-99.9,-100.00,SSW,208,7.3,8.1,-999,0.00,,---,0.00,VWS V14.01,2013-02-14 17:42:00,
2013-02-14 12:45:00,36.6,-99.9,-100.00,SSW,202,6.3,10.3,-999,0.00,,---,0.00,VWS V14.01,2013-02-14 17:45:00,
2013-02-14 12:46:00,36.8,-99.9,-100.00,South,188,4.7,5.6,-999,0.00,,---,0.00,VWS V14.01,2013-02-14 17:46:00,
2013-02-14 12:47:00,36.6,-99.9,-100.00,South,190,9.8,10.3,-999,0.00,,---,0.00,VWS V14.01,2013-02-14 17:47:00,
2013-02-14 12:50:00,36.6,-99.9,-100.00,South,186,9.1,13.0,-999,0.00,,---,0.00,VWS V14.01,2013-02-14 17:50:00,
2013-02-14 12:51:00,36.6,-99.9,-100.00,South,177,9.0,13.0,-999,0.00,,---,0.00,VWS V14.01,2013-02-14 17:51:00,
2013-02-14 12:52:00,37.0,-99.9,-100.00,SSW,202,5.2,10.9,-999,0.00,,---,0.00,VWS V14.01,2013-02-14 17:52:00,
2013-02-14 12:55:00,37.0,-99.9,-100.00,South,191,9.1,9.1,-999,0.00,,---,0.00,VWS V14.01,2013-02-14 17:55:00,
2013-02-14 12:56:00,37.0,-99.9,-100.00,SSW,195,10.2,13.7,-999,0.00,,---,0.00,VWS V14.01,2013-02-14 17:56:00,
2013-02-14 12:57:00,36.5,-99.9,-100.00,SSW,197,9.0,12.9,-999,0.00,,---,0.00,VWS V14.01,2013-02-14 17:57:00,
2013-02-14 13:00:00,37.3,-99.9,-100.00,South,188,8.0,8.0,-999,0.00,,---,0.00,VWS V14.01,2013-02-14 18:00:00,
2013-02-14 13:01:00,37.0,-99.9,-100.00,SSW,198,6.7,8.5,-999,0.00,,---,0.00,VWS V14.01,2013-02-14 18:01:00,
2013-02-14 13:02:00,37.0,-99.9,-100.00,SSW,211,5.3,9.3,-999,0.00,,---,0.00,VWS V14.01,2013-02-14 18:02:00,
2013-02-14 13:05:00,37.5,-99.9,-100.00,SSE,166,8.2,9.0,-999,0.00,,---,0.00,VWS V14.01,2013-02-14 18:05:00,
2013-02-14 13:06:00,38.0,-99.9,-100.00,South,187,8.3,8.3,-999,0.00,,---,0.00,VWS V14.01,2013-02-14 18:06:00,
2013-02-14 13:07:00,37.5,-99.9,-100.00,SSW,200,3.5,8.3,-999,0.00,,---,0.00,VWS V14.01,2013-02-14 18:07:00,
2013-02-14 13:10:00,37.8,-99.9,-100.00,SSW,205,3.5,7.3,-999,0.00,,---,0.00,VWS V14.01,2013-02-14 18:10:00,
2013-02-14 13:11:00,37.8,-99.9,-100.00,SSW,198,7.0,7.5,-999,0.00,,---,0.00,VWS V14.01,2013-02-14 18:11:00,
2013-02-14 13:12:00,37.5,-99.9,-100.00,SSE,155,7.1,11.4,-999,0.00,,---,0.00,VWS V14.01,2013-02-14 18:12:00,
2013-02-14 13:13:00,37.8,-99.9,-100.00,South,181,11.6,13.2,-999,0.00,,---,0.00,VWS V14.01,2013-02-14 18:13:00,
2013-02-14 13:16:00,37.5,-99.9,-100.00,SW,225,8.3,8.3,-999,0.00,,---,0.00,VWS V14.01,2013-02-14 18:16:00,
2013-02-14 13:17:00,37.5,-99.9,-100.00,South,188,7.4,10.7,-999,0.00,,---,0.00,VWS V14.01,2013-02-14 18:17:00,
2013-02-14 13:18:00,37.3,-99.9,-100.00,South,181,9.3,9.3,-999,0.00,,---,0.00,VWS V14.01,2013-02-14 18:18:00,
2013-02-14 13:21:00,37.0,-99.9,-100.00,SW,218,5.8,5.8,-999,0.00,,---,0.00,VWS V14.01,2013-02-14 18:21:00,
2013-02-14 13:22:00,37.5,-99.9,-100.00,SSW,201,8.0,13.7,-999,0.00,,---,0.00,VWS V14.01,2013-02-14 18:22:00,
2013-02-14 13:23:00,37.0,-99.9,-100.00,SW,224,5.7,9.9,-999,0.00,,---,0.00,VWS V14.01,2013-02-14 18:23:00,
2013-02-14 13:26:00,37.0,-99.9,-100.00,South,191,11.5,11.5,-999,0.00,,---,0.00,VWS V14.01,2013-02-14 18:26:00,
2013-02-14 13:27:00,37.3,-99.9,-100.00,SW,214,6.5,13.2,-999,0.00,,---,0.00,VWS V14.01,2013-02-14 18:27:00,
2013-02-14 13:28:00,37.0,-99.9,-100.00,SW,232,6.3,13.2,-999,0.00,,---,0.00,VWS V14.01,2013-02-14 18:28:00,
2013-02-14 13:32:00,37.0,-99.9,-100.00,SSW,205,6.6,6.8,-999,0.00,,---,0.00,VWS V14.01,2013-02-14 18:32:00,
2013-02-14 13:33:00,37.0,-99.9,-100.00,SSW,193,10.3,11.9,-999,0.00,,---,0.00,VWS V14.01,2013-02-14 18:33:00,
2013-02-14 13:37:00,36.3,-99.9,-100.00,South,191,9.5,13.4,-999,0.00,,---,0.00,VWS V14.01,2013-02-14 18:37:00,
2013-02-14 13:38:00,36.3,-99.9,-100.00,South,174,9.9,10.5,-999,0.00,,---,0.00,VWS V14.01,2013-02-14 18:38:00,
2013-02-14 13:42:00,37.0,-99.9,-100.00,South,188,7.8,11.4,-999,0.00,,---,0.00,VWS V14.01,2013-02-14 18:42:00,
2013-02-14 13:44:00,36.8,-99.9,-100.00,SW,219,9.6,12.1,-999,0.00,,---,0.00,VWS V14.01,2013-02-14 18:44:00,
2013-02-14 13:47:00,37.0,-99.9,-100.00,SSW,197,7.8,14.9,-999,0.00,,---,0.00,VWS V14.01,2013-02-14 18:47:00,
2013-02-14 13:48:00,36.8,-99.9,-100.00,SSE,156,9.8,11.4,-999,0.00,,---,0.00,VWS V14.01,2013-02-14 18:48:00,
2013-02-14 13:49:00,36.8,-99.9,-100.00,SW,229,13.6,13.6,-999,0.00,,---,0.00,VWS V14.01,2013-02-14 18:49:00,
2013-02-14 13:52:00,37.0,-99.9,-100.00,South,181,7.1,9.3,-999,0.00,,---,0.00,VWS V14.01,2013-02-14 18:52:00,
2013-02-14 13:53:00,36.5,-99.9,-100.00,SSW,202,10.9,10.9,-999,0.00,,---,0.00,VWS V14.01,2013-02-14 18:53:00,
2013-02-14 13:54:00,36.3,-99.9,-100.00,SW,215,6.8,10.9,-999,0.00,,---,0.00,VWS V14.01,2013-02-14 18:54:00,
2013-02-14 13:57:00,36.8,-99.9,-100.00,SSW,202,5.2,9.1,-999,0.00,,---,0.00,VWS V14.01,2013-02-14 18:57:00,
2013-02-14 13:58:00,36.5,-99.9,-100.00,SSW,195,6.4,6.4,-999,0.00,,---,0.00,VWS V14.01,2013-02-14 18:58:00,
2013-02-14 13:59:00,36.3,-99.9,-100.00,SW,221,9.1,9.3,-999,0.00,,---,0.00,VWS V14.01,2013-02-14 18:59:00,
2013-02-14 14:02:00,36.3,-99.9,-100.00,WSW,250,6.6,9.6,-999,0.00,,---,0.00,VWS V14.01,2013-02-14 19:02:00,
2013-02-14 14:03:00,36.8,-99.9,-100.00,SSW,207,7.4,10.3,-999,0.00,,---,0.00,VWS V14.01,2013-02-14 19:03:00,
2013-02-14 14:04:00,36.0,-99.9,-100.00,WSW,240,6.6,6.6,-999,0.00,,---,0.00,VWS V14.01,2013-02-14 19:04:00,
2013-02-14 14:07:00,36.0,-99.9,-100.00,South,186,5.8,6.8,-999,0.00,,---,0.00,VWS V14.01,2013-02-14 19:07:00,
2013-02-14 14:08:00,36.3,-99.9,-100.00,South,184,3.2,5.8,-999,0.00,,---,0.00,VWS V14.01,2013-02-14 19:08:00,
2013-02-14 14:09:00,37.0,-99.9,-100.00,SSW,193,7.6,7.8,-999,0.00,,---,0.00,VWS V14.01,2013-02-14 19:09:00,
2013-02-14 14:12:00,36.5,-99.9,-100.00,SW,219,8.8,10.9,-999,0.00,,---,0.00,VWS V14.01,2013-02-14 19:12:00,
2013-02-14 14:13:00,36.0,-99.9,-100.00,South,188,4.8,10.4,-999,0.00,,---,0.00,VWS V14.01,2013-02-14 19:13:00,
2013-02-14 14:14:00,36.0,-99.9,-100.00,SSW,204,6.0,7.6,-999,0.00,,---,0.00,VWS V14.01,2013-02-14 19:14:00,
2013-02-14 14:17:00,36.3,-99.9,-100.00,SW,225,8.8,8.8,-999,0.00,,---,0.00,VWS V14.01,2013-02-14 19:17:00,
2013-02-14 14:18:00,36.3,-99.9,-100.00,South,190,5.2,9.8,-999,0.00,,---,0.00,VWS V14.01,2013-02-14 19:18:00,
2013-02-14 14:19:00,36.3,-99.9,-100.00,SSW,202,14.4,14.4,-999,0.00,,---,0.00,VWS V14.01,2013-02-14 19:19:00,
2013-02-14 14:22:00,36.3,-99.9,-100.00,SSW,195,6.8,14.0,-999,0.00,,---,0.00,VWS V14.01,2013-02-14 19:22:00,
2013-02-14 14:23:00,36.3,-99.9,-100.00,South,190,6.6,8.2,-999,0.00,,---,0.00,VWS V14.01,2013-02-14 19:23:00,
2013-02-14 14:24:00,36.0,-99.9,-100.00,SSW,208,4.3,7.5,-999,0.00,,---,0.00,VWS V14.01,2013-02-14 19:24:00,
2013-02-14 14:25:00,36.0,-99.9,-100.00,South,181,7.5,7.5,-999,0.00,,---,0.00,VWS V14.01,2013-02-14 19:25:00,
2013-02-14 14:27:00,36.3,-99.9,-100.00,South,188,9.9,9.9,-999,0.00,,---,0.00,VWS V14.01,2013-02-14 19:27:00,
2013-02-14 14:28:00,36.3,-99.9,-100.00,SW,235,7.0,12.6,-999,0.00,,---,0.00,VWS V14.01,2013-02-14 19:28:00,
2013-02-14 14:29:00,36.0,-99.9,-100.00,SW,222,7.1,10.5,-999,0.00,,---,0.00,VWS V14.01,2013-02-14 19:29:00,
2013-02-14 14:32:00,36.0,-99.9,-100.00,SSW,204,7.4,7.4,-999,0.00,,---,0.00,VWS V14.01,2013-02-14 19:32:00,
2013-02-14 14:33:00,36.3,-99.9,-100.00,South,180,5.5,9.2,-999,0.00,,---,0.00,VWS V14.01,2013-02-14 19:33:00,
2013-02-14 14:34:00,36.3,-99.9,-100.00,SW,232,9.8,9.8,-999,0.00,,---,0.00,VWS V14.01,2013-02-14 19:34:00,
2013-02-14 14:35:00,36.3,-99.9,-100.00,SW,215,5.3,8.5,-999,0.00,,---,0.00,VWS V14.01,2013-02-14 19:35:00,
2013-02-14 14:37:00,36.3,-99.9,-100.00,SE,142,0.0,0.0,-999,0.00,,---,0.00,VWS V14.01,2013-02-14 19:37:00,
2013-02-14 14:38:00,36.3,-99.9,-100.00,South,191,4.9,7.0,-999,0.00,,---,0.00,VWS V14.01,2013-02-14 19:38:00,
2013-02-14 14:39:00,36.3,-99.9,-100.00,SSE,163,11.9,12.7,-999,0.00,,---,0.00,VWS V14.01,2013-02-14 19:39:00,
2013-02-14 14:40:00,35.7,-99.9,-100.00,South,177,4.7,11.5,-999,0.00,,---,0.00,VWS V14.01,2013-02-14 19:40:00,
2013-02-14 14:42:00,35.5,-99.9,-100.00,South,176,7.5,9.2,-999,0.00,,---,0.00,VWS V14.01,2013-02-14 19:42:00,
2013-02-14 14:43:00,35.5,-99.9,-100.00,South,179,13.7,13.7,-999,0.00,,---,0.00,VWS V14.01,2013-02-14 19:43:00,
2013-02-14 14:44:00,35.5,-99.9,-100.00,South,177,9.3,13.7,-999,0.00,,---,0.00,VWS V14.01,2013-02-14 19:44:00,
2013-02-14 14:45:00,35.5,-99.9,-100.00,SSW,195,7.2,11.4,-999,0.00,,---,0.00,VWS V14.01,2013-02-14 19:45:00,
2013-02-14 14:47:00,35.5,-99.9,-100.00,South,191,8.1,10.5,-999,0.00,,---,0.00,VWS V14.01,2013-02-14 19:47:00,
2013-02-14 14:48:00,35.5,-99.9,-100.00,SSW,198,9.3,9.8,-999,0.00,,---,0.00,VWS V14.01,2013-02-14 19:48:00,
2013-02-14 14:49:00,35.3,-99.9,-100.00,South,186,9.4,9.4,-999,0.00,,---,0.00,VWS V14.01,2013-02-14 19:49:00,
2013-02-14 14:50:00,35.5,-99.9,-100.00,South,186,9.9,11.1,-999,0.00,,---,0.00,VWS V14.01,2013-02-14 19:50:00,
2013-02-14 14:52:00,35.0,-99.9,-100.00,SSW,205,11.6,11.6,-999,0.00,,---,0.01,VWS V14.01,2013-02-14 19:52:00,
2013-02-14 14:53:00,34.8,-99.9,-100.00,South,188,11.6,11.9,-999,0.00,,---,0.01,VWS V14.01,2013-02-14 19:53:00,
2013-02-14 14:54:00,35.5,-99.9,-100.00,SSW,201,8.3,8.3,-999,0.00,,---,0.01,VWS V14.01,2013-02-14 19:54:00,
2013-02-14 14:55:00,35.7,-99.9,-100.00,SW,221,3.5,9.4,-999,0.00,,---,0.01,VWS V14.01,2013-02-14 19:55:00,
2013-02-14 14:57:00,35.5,-99.9,-100.00,South,174,6.2,9.6,-999,0.00,,---,0.01,VWS V14.01,2013-02-14 19:57:00,
2013-02-14 14:59:00,35.5,-99.9,-100.00,SE,146,0.0,12.6,-999,0.00,,---,0.01,VWS V14.01,2013-02-14 19:59:00,
2013-02-14 15:00:00,35.3,-99.9,-100.00,SSW,193,11.8,11.8,-999,0.00,,---,0.01,VWS V14.01,2013-02-14 20:00:00,
2013-02-14 15:02:00,35.5,-99.9,-100.00,South,190,10.7,12.7,-999,0.00,,---,0.01,VWS V14.01,2013-02-14 20:02:00,
2013-02-14 15:04:00,35.3,-99.9,-100.00,SW,221,5.8,11.7,-999,0.00,,---,0.01,VWS V14.01,2013-02-14 20:04:00,
2013-02-14 15:05:00,35.0,-99.9,-100.00,South,180,10.0,12.9,-999,0.00,,---,0.01,VWS V14.01,2013-02-14 20:05:00,
2013-02-14 15:08:00,35.3,-99.9,-100.00,South,187,9.2,9.8,-999,0.00,,---,0.01,VWS V14.01,2013-02-14 20:08:00,
2013-02-14 15:09:00,35.5,-99.9,-100.00,SSW,193,3.2,10.2,-999,0.00,,---,0.01,VWS V14.01,2013-02-14 20:09:00,
2013-02-14 15:10:00,35.5,-99.9,-100.00,SSE,163,5.4,7.4,-999,0.00,,---,0.01,VWS V14.01,2013-02-14 20:10:00,
2013-02-14 15:11:00,35.5,-99.9,-100.00,South,187,8.0,8.1,-999,0.00,,---,0.01,VWS V14.01,2013-02-14 20:11:00,
2013-02-14 15:13:00,35.5,-99.9,-100.00,South,187,6.6,7.5,-999,0.00,,---,0.01,VWS V14.01,2013-02-14 20:13:00,
2013-02-14 15:14:00,35.5,-99.9,-100.00,SSW,211,7.5,15.2,-999,0.00,,---,0.02,VWS V14.01,2013-02-14 20:14:00,
2013-02-14 15:15:00,35.5,-99.9,-100.00,SSW,200,6.5,8.6,-999,0.00,,---,0.02,VWS V14.01,2013-02-14 20:15:00,
2013-02-14 15:16:00,35.5,-99.9,-100.00,SSW,198,6.5,11.0,-999,0.00,,---,0.02,VWS V14.01,2013-02-14 20:16:00,
2013-02-14 15:18:00,35.5,-99.9,-100.00,SSW,205,5.7,9.4,-999,0.00,,---,0.02,VWS V14.01,2013-02-14 20:18:00,
2013-02-14 15:19:00,35.5,-99.9,-100.00,SSW,202,0.0,5.7,-999,0.00,,---,0.02,VWS V14.01,2013-02-14 20:19:00,
2013-02-14 15:20:00,35.7,-99.9,-100.00,SSE,160,8.3,8.3,-999,0.00,,---,0.02,VWS V14.01,2013-02-14 20:20:00,
2013-02-14 15:21:00,35.5,-99.9,-100.00,South,187,7.3,7.3,-999,0.00,,---,0.02,VWS V14.01,2013-02-14 20:21:00,
2013-02-14 15:23:00,35.5,-99.9,-100.00,SSW,194,5.2,12.6,-999,0.00,,---,0.02,VWS V14.01,2013-02-14 20:23:00,
2013-02-14 15:24:00,35.5,-99.9,-100.00,SE,124,0.0,0.0,-999,0.00,,---,0.02,VWS V14.01,2013-02-14 20:24:00,
2013-02-14 15:25:00,36.0,-99.9,-100.00,SE,124,0.0,0.0,-999,0.00,,---,0.02,VWS V14.01,2013-02-14 20:25:00,
2013-02-14 15:26:00,35.7,-99.9,-100.00,South,176,8.3,8.3,-999,0.00,,---,0.02,VWS V14.01,2013-02-14 20:26:00,
2013-02-14 15:28:00,36.0,-99.9,-100.00,SW,215,5.8,7.8,-999,0.00,,---,0.02,VWS V14.01,2013-02-14 20:28:00,
2013-02-14 15:29:00,36.0,-99.9,-100.00,South,183,7.6,7.6,-999,0.00,,---,0.02,VWS V14.01,2013-02-14 20:29:00,
2013-02-14 15:30:00,35.7,-99.9,-100.00,SSW,200,8.5,8.5,-999,0.00,,---,0.02,VWS V14.01,2013-02-14 20:30:00,
2013-02-14 15:32:00,36.3,-99.9,-100.00,South,172,8.5,9.6,-999,0.00,,---,0.02,VWS V14.01,2013-02-14 20:32:00,
2013-02-14 15:33:00,36.3,-99.9,-100.00,SSE,162,8.5,11.9,-999,0.00,,---,0.02,VWS V14.01,2013-02-14 20:33:00,
2013-02-14 15:34:00,35.5,-99.9,-100.00,SSW,193,4.7,6.6,-999,0.00,,---,0.02,VWS V14.01,2013-02-14 20:34:00,
2013-02-14 15:35:00,36.0,-99.9,-100.00,SSE,150,8.7,9.3,-999,0.00,,---,0.02,VWS V14.01,2013-02-14 20:35:00,
2013-02-14 15:37:00,36.0,-99.9,-100.00,ESE,108,0.0,7.3,-999,0.00,,---,0.02,VWS V14.01,2013-02-14 20:37:00,
2013-02-14 15:38:00,35.5,-99.9,-100.00,South,172,8.7,8.7,-999,0.00,,---,0.02,VWS V14.01,2013-02-14 20:38:00,
2013-02-14 15:39:00,35.5,-99.9,-100.00,South,191,9.0,11.7,-999,0.00,,---,0.02,VWS V14.01,2013-02-14 20:39:00,
2013-02-14 15:41:00,35.5,-99.9,-100.00,South,176,10.9,10.9,-999,0.00,,---,0.02,VWS V14.01,2013-02-14 20:41:00,
2013-02-14 15:42:00,35.7,-99.9,-100.00,South,176,6.0,9.8,-999,0.00,,---,0.02,VWS V14.01,2013-02-14 20:42:00,
2013-02-14 15:43:00,35.7,-99.9,-100.00,South,173,10.0,10.0,-999,0.00,,---,0.02,VWS V14.01,2013-02-14 20:43:00,
2013-02-14 15:44:00,35.5,-99.9,-100.00,South,176,10.9,12.1,-999,0.00,,---,0.02,VWS V14.01,2013-02-14 20:44:00,
2013-02-14 15:46:00,36.0,-99.9,-100.00,SSW,197,6.0,10.3,-999,0.00,,---,0.02,VWS V14.01,2013-02-14 20:46:00,
2013-02-14 15:47:00,36.3,-99.9,-100.00,South,186,8.7,8.8,-999,0.00,,---,0.02,VWS V14.01,2013-02-14 20:47:00,
2013-02-14 15:48:00,36.3,-99.9,-100.00,South,180,4.8,7.8,-999,0.00,,---,0.02,VWS V14.01,2013-02-14 20:48:00,
2013-02-14 15:49:00,36.3,-99.9,-100.00,South,172,9.6,10.7,-999,0.00,,---,0.02,VWS V14.01,2013-02-14 20:49:00,
2013-02-14 15:51:00,36.0,-99.9,-100.00,South,176,10.7,13.1,-999,0.00,,---,0.02,VWS V14.01,2013-02-14 20:51:00,
2013-02-14 15:52:00,36.0,-99.9,-100.00,SSW,207,7.6,7.6,-999,0.00,,---,0.02,VWS V14.01,2013-02-14 20:52:00,
2013-02-14 15:53:00,36.3,-99.9,-100.00,South,180,8.6,11.1,-999,0.00,,---,0.02,VWS V14.01,2013-02-14 20:53:00,
2013-02-14 15:55:00,36.3,-99.9,-100.00,South,191,7.4,9.5,-999,0.00,,---,0.02,VWS V14.01,2013-02-14 20:55:00,
2013-02-14 15:56:00,36.0,-99.9,-100.00,South,188,9.5,9.9,-999,0.00,,---,0.02,VWS V14.01,2013-02-14 20:56:00,
2013-02-14 15:57:00,35.7,-99.9,-100.00,South,188,7.2,7.4,-999,0.00,,---,0.02,VWS V14.01,2013-02-14 20:57:00,
2013-02-14 15:59:00,36.0,-99.9,-100.00,SSW,193,12.2,12.2,-999,0.00,,---,0.02,VWS V14.01,2013-02-14 20:59:00,
2013-02-14 16:00:00,36.3,-99.9,-100.00,South,170,7.8,13.0,-999,0.00,,---,0.02,VWS V14.01,2013-02-14 21:00:00,
2013-02-14 16:01:00,35.7,-99.9,-100.00,South,172,7.7,10.4,-999,0.00,,---,0.02,VWS V14.01,2013-02-14 21:01:00,
2013-02-14 16:02:00,36.3,-99.9,-100.00,South,183,6.5,7.1,-999,0.00,,---,0.02,VWS V14.01,2013-02-14 21:02:00,
2013-02-14 16:04:00,36.3,-99.9,-100.00,SSW,204,6.6,9.9,-999,0.00,,---,0.02,VWS V14.01,2013-02-14 21:04:00,
2013-02-14 16:05:00,35.7,-99.9,-100.00,SSE,163,7.2,9.3,-999,0.00,,---,0.02,VWS V14.01,2013-02-14 21:05:00,
2013-02-14 16:06:00,36.0,-99.9,-100.00,SSW,204,13.7,13.7,-999,0.00,,---,0.02,VWS V14.01,2013-02-14 21:06:00,
2013-02-14 16:07:00,35.7,-99.9,-100.00,SW,224,6.2,9.8,-999,0.00,,---,0.02,VWS V14.01,2013-02-14 21:07:00,
2013-02-14 16:09:00,35.5,-99.9,-100.00,SSW,204,6.6,8.3,-999,0.00,,---,0.02,VWS V14.01,2013-02-14 21:09:00,
2013-02-14 16:10:00,35.5,-99.9,-100.00,SSW,193,9.0,9.8,-999,0.00,,---,0.02,VWS V14.01,2013-02-14 21:10:00,
2013-02-14 16:11:00,35.5,-99.9,-100.00,South,174,6.1,7.4,-999,0.00,,---,0.02,VWS V14.01,2013-02-14 21:11:00,
2013-02-14 16:12:00,35.5,-99.9,-100.00,SW,219,6.0,9.8,-999,0.00,,---,0.02,VWS V14.01,2013-02-14 21:12:00,
2013-02-14 16:14:00,35.3,-99.9,-100.00,SSE,165,11.7,12.6,-999,0.00,,---,0.02,VWS V14.01,2013-02-14 21:14:00,
2013-02-14 16:15:00,35.5,-99.9,-100.00,South,181,9.3,9.3,-999,0.00,,---,0.02,VWS V14.01,2013-02-14 21:15:00,
2013-02-14 16:16:00,35.3,-99.9,-100.00,SW,221,6.1,8.7,-999,0.00,,---,0.02,VWS V14.01,2013-02-14 21:16:00,
2013-02-14 16:17:00,35.5,-99.9,-100.00,South,172,9.6,11.2,-999,0.00,,---,0.02,VWS V14.01,2013-02-14 21:17:00,
2013-02-14 16:19:00,35.7,-99.9,-100.00,SW,231,6.3,11.2,-999,0.00,,---,0.02,VWS V14.01,2013-02-14 21:19:00,
2013-02-14 16:20:00,35.7,-99.9,-100.00,South,187,8.3,10.9,-999,0.00,,---,0.02,VWS V14.01,2013-02-14 21:20:00,
2013-02-14 16:22:00,35.7,-99.9,-100.00,SW,224,8.9,9.3,-999,0.00,,---,0.02,VWS V14.01,2013-02-14 21:22:00,
2013-02-14 16:24:00,35.7,-99.9,-100.00,WSW,245,9.1,13.6,-999,0.00,,---,0.02,VWS V14.01,2013-02-14 21:24:00,
2013-02-14 16:25:00,35.7,-99.9,-100.00,South,179,10.8,12.1,-999,0.00,,---,0.02,VWS V14.01,2013-02-14 21:25:00,
2013-02-14 16:27:00,35.5,-99.9,-100.00,SW,229,6.5,13.2,-999,0.00,,---,0.02,VWS V14.01,2013-02-14 21:27:00,
2013-02-14 16:28:00,36.0,-99.9,-100.00,SW,228,8.9,11.2,-999,0.00,,---,0.02,VWS V14.01,2013-02-14 21:28:00,
2013-02-14 16:29:00,35.7,-99.9,-100.00,SSW,193,7.0,11.4,-999,0.00,,---,0.02,VWS V14.01,2013-02-14 21:29:00,
2013-02-14 16:30:00,35.5,-99.9,-100.00,WSW,256,7.5,10.9,-999,0.00,,---,0.02,VWS V14.01,2013-02-14 21:30:00,
2013-02-14 16:32:00,36.0,-99.9,-100.00,SSW,208,7.1,10.9,-999,0.00,,---,0.02,VWS V14.01,2013-02-14 21:32:00,
2013-02-14 16:33:00,36.3,-99.9,-100.00,South,188,6.3,9.7,-999,0.00,,---,0.02,VWS V14.01,2013-02-14 21:33:00,
2013-02-14 16:34:00,36.3,-99.9,-100.00,SSW,204,8.5,9.9,-999,0.00,,---,0.02,VWS V14.01,2013-02-14 21:34:00,
2013-02-14 16:35:00,36.3,-99.9,-100.00,South,186,7.4,12.0,-999,0.00,,---,0.02,VWS V14.01,2013-02-14 21:35:00,
2013-02-14 16:37:00,36.0,-99.9,-100.00,SW,219,6.2,7.2,-999,0.00,,---,0.02,VWS V14.01,2013-02-14 21:37:00,
2013-02-14 16:38:00,35.7,-99.9,-100.00,South,174,7.8,11.4,-999,0.00,,---,0.02,VWS V14.01,2013-02-14 21:38:00,
2013-02-14 16:39:00,36.0,-99.9,-100.00,SSW,201,10.7,12.3,-999,0.00,,---,0.02,VWS V14.01,2013-02-14 21:39:00,
2013-02-14 16:41:00,35.7,-99.9,-100.00,SSW,195,6.8,11.9,-999,0.00,,---,0.02,VWS V14.01,2013-02-14 21:41:00,
2013-02-14 16:42:00,36.0,-99.9,-100.00,SSW,205,9.5,13.7,-999,0.00,,---,0.02,VWS V14.01,2013-02-14 21:42:00,
2013-02-14 16:43:00,35.5,-99.9,-100.00,South,179,12.0,14.4,-999,0.00,,---,0.02,VWS V14.01,2013-02-14 21:43:00,
2013-02-14 16:45:00,35.7,-99.9,-100.00,SSW,204,7.6,8.9,-999,0.00,,---,0.02,VWS V14.01,2013-02-14 21:45:00,
2013-02-14 16:46:00,35.7,-99.9,-100.00,South,181,9.6,9.6,-999,0.00,,---,0.02,VWS V14.01,2013-02-14 21:46:00,
2013-02-14 16:47:00,35.5,-99.9,-100.00,South,181,14.8,14.8,-999,0.00,,---,0.02,VWS V14.01,2013-02-14 21:47:00,
2013-02-14 16:48:00,36.3,-99.9,-100.00,SW,232,9.4,14.8,-999,0.00,,---,0.02,VWS V14.01,2013-02-14 21:48:00,
2013-02-14 16:50:00,36.0,-99.9,-100.00,SSW,208,7.6,9.0,-999,0.00,,---,0.02,VWS V14.01,2013-02-14 21:50:00,
2013-02-14 16:51:00,36.0,-99.9,-100.00,SW,232,8.0,14.9,-999,0.00,,---,0.02,VWS V14.01,2013-02-14 21:51:00,
2013-02-14 16:52:00,36.3,-99.9,-100.00,WSW,238,4.3,11.8,-999,0.00,,---,0.02,VWS V14.01,2013-02-14 21:52:00,
2013-02-14 16:53:00,35.7,-99.9,-100.00,SSW,195,10.1,14.4,-999,0.00,,---,0.02,VWS V14.01,2013-02-14 21:53:00,
2013-02-14 16:55:00,35.7,-99.9,-100.00,SW,232,7.3,9.5,-999,0.00,,---,0.02,VWS V14.01,2013-02-14 21:55:00,
2013-02-14 16:56:00,35.7,-99.9,-100.00,SSW,197,6.8,9.5,-999,0.00,,---,0.02,VWS V14.01,2013-02-14 21:56:00,
2013-02-14 16:57:00,36.3,-99.9,-100.00,SSW,201,8.6,13.2,-999,0.00,,---,0.02,VWS V14.01,2013-02-14 21:57:00,
2013-02-14 16:58:00,36.0,-99.9,-100.00,SSW,202,10.9,10.9,-999,0.00,,---,0.02,VWS V14.01,2013-02-14 21:58:00,
2013-02-14 17:01:00,35.7,-99.9,-100.00,South,187,7.2,8.6,-999,0.00,,---,0.02,VWS V14.01,2013-02-14 22:01:00,
2013-02-14 17:02:00,35.5,-99.9,-100.00,SW,217,9.5,10.7,-999,0.00,,---,0.02,VWS V14.01,2013-02-14 22:02:00,
2013-02-14 17:03:00,35.7,-99.9,-100.00,WSW,246,9.9,9.9,-999,0.00,,---,0.02,VWS V14.01,2013-02-14 22:03:00,
2013-02-14 17:06:00,35.5,-99.9,-100.00,SSW,198,12.2,16.1,-999,0.00,,---,0.02,VWS V14.01,2013-02-14 22:06:00,
2013-02-14 17:08:00,35.5,-99.9,-100.00,SW,221,8.6,12.1,-999,0.00,,---,0.02,VWS V14.01,2013-02-14 22:08:00,
2013-02-14 17:09:00,35.0,-99.9,-100.00,South,186,9.5,10.9,-999,0.00,,---,0.02,VWS V14.01,2013-02-14 22:09:00,
2013-02-14 17:11:00,35.3,-99.9,-100.00,WSW,249,3.0,8.1,-999,0.00,,---,0.02,VWS V14.01,2013-02-14 22:11:00,
2013-02-14 17:13:00,35.0,-99.9,-100.00,South,170,12.5,12.5,-999,0.00,,---,0.03,VWS V14.01,2013-02-14 22:13:00,
2013-02-14 17:14:00,34.8,-99.9,-100.00,South,181,8.6,9.9,-999,0.00,,---,0.03,VWS V14.01,2013-02-14 22:14:00,
2013-02-14 17:16:00,35.0,-99.9,-100.00,SSW,205,4.8,10.9,-999,0.00,,---,0.03,VWS V14.01,2013-02-14 22:16:00,
2013-02-14 17:18:00,35.3,-99.9,-100.00,SSW,211,6.6,11.4,-999,0.00,,---,0.03,VWS V14.01,2013-02-14 22:18:00,
2013-02-14 17:19:00,34.8,-99.9,-100.00,SSW,194,6.1,10.0,-999,0.00,,---,0.03,VWS V14.01,2013-02-14 22:19:00,
2013-02-14 17:21:00,35.0,-99.9,-100.00,South,191,10.5,10.5,-999,0.00,,---,0.03,VWS V14.01,2013-02-14 22:21:00,
2013-02-14 17:23:00,34.8,-99.9,-100.00,WSW,239,6.1,8.9,-999,0.00,,---,0.03,VWS V14.01,2013-02-14 22:23:00,
2013-02-14 17:24:00,34.8,-99.9,-100.00,SSW,210,9.9,9.9,-999,0.00,,---,0.03,VWS V14.01,2013-02-14 22:24:00,
2013-02-14 17:26:00,34.8,-99.9,-100.00,SW,214,9.9,11.4,-999,0.00,,---,0.03,VWS V14.01,2013-02-14 22:26:00,
2013-02-14 17:28:00,34.8,-99.9,-100.00,South,188,8.7,10.6,-999,0.00,,---,0.03,VWS V14.01,2013-02-14 22:28:00,
2013-02-14 17:29:00,35.3,-99.9,-100.00,SSW,193,9.4,10.4,-999,0.00,,---,0.03,VWS V14.01,2013-02-14 22:29:00,
2013-02-14 17:31:00,34.8,-99.9,-100.00,SSW,211,10.6,10.6,-999,0.00,,---,0.03,VWS V14.01,2013-02-14 22:31:00,
2013-02-14 17:33:00,34.8,-99.9,-100.00,SSW,195,8.3,12.2,-999,0.00,,---,0.03,VWS V14.01,2013-02-14 22:33:00,
2013-02-14 17:34:00,34.8,-99.9,-100.00,South,187,12.7,12.7,-999,0.00,,---,0.03,VWS V14.01,2013-02-14 22:34:00,
2013-02-14 17:36:00,34.8,-99.9,-100.00,SSW,200,12.1,12.1,-999,0.00,,---,0.03,VWS V14.01,2013-02-14 22:36:00,
2013-02-14 17:38:00,34.8,-99.9,-100.00,South,174,8.8,9.7,-999,0.00,,---,0.03,VWS V14.01,2013-02-14 22:38:00,
2013-02-14 17:39:00,34.6,-99.9,-100.00,SSW,202,5.0,10.3,-999,0.00,,---,0.03,VWS V14.01,2013-02-14 22:39:00,
2013-02-14 17:41:00,34.6,-99.9,-100.00,SSW,193,5.2,8.1,-999,0.00,,---,0.03,VWS V14.01,2013-02-14 22:41:00,
2013-02-14 17:43:00,34.3,-99.9,-100.00,SSW,202,5.3,6.6,-999,0.00,,---,0.03,VWS V14.01,2013-02-14 22:43:00,
2013-02-14 17:44:00,34.3,-99.9,-100.00,SSW,198,8.7,8.7,-999,0.00,,---,0.03,VWS V14.01,2013-02-14 22:44:00,
2013-02-14 17:46:00,34.8,-99.9,-100.00,South,169,6.3,6.3,-999,0.00,,---,0.03,VWS V14.01,2013-02-14 22:46:00,
2013-02-14 17:47:00,34.6,-99.9,-100.00,South,181,7.6,7.6,-999,0.00,,---,0.03,VWS V14.01,2013-02-14 22:47:00,
2013-02-14 17:48:00,34.8,-99.9,-100.00,SSW,195,6.5,10.9,-999,0.00,,---,0.03,VWS V14.01,2013-02-14 22:48:00,
2013-02-14 17:49:00,34.8,-99.9,-100.00,South,188,7.6,10.9,-999,0.00,,---,0.03,VWS V14.01,2013-02-14 22:49:00,
2013-02-14 17:51:00,34.6,-99.9,-100.00,SSW,194,5.0,7.5,-999,0.00,,---,0.04,VWS V14.01,2013-02-14 22:51:00,
2013-02-14 17:52:00,34.8,-99.9,-100.00,South,187,7.2,7.7,-999,0.00,,---,0.04,VWS V14.01,2013-02-14 22:52:00,
2013-02-14 17:53:00,34.8,-99.9,-100.00,SSW,195,8.5,8.5,-999,0.00,,---,0.04,VWS V14.01,2013-02-14 22:53:00,
2013-02-14 17:54:00,34.6,-99.9,-100.00,South,184,9.1,9.1,-999,0.00,,---,0.04,VWS V14.01,2013-02-14 22:54:00,
2013-02-14 17:56:00,34.0,-99.9,-100.00,South,179,9.8,9.8,-999,0.00,,---,0.04,VWS V14.01,2013-02-14 22:56:00,
2013-02-14 17:57:00,34.3,-99.9,-100.00,SSW,208,9.3,9.8,-999,0.00,,---,0.04,VWS V14.01,2013-02-14 22:57:00,
2013-02-14 17:58:00,34.6,-99.9,-100.00,South,186,11.1,11.1,-999,0.00,,---,0.04,VWS V14.01,2013-02-14 22:58:00,
2013-02-14 17:59:00,35.0,-99.9,-100.00,South,188,8.1,11.2,-999,0.00,,---,0.04,VWS V14.01,2013-02-14 22:59:00,
2013-02-14 18:02:00,34.8,-99.9,-100.00,SW,215,5.7,8.4,-999,0.00,,---,0.04,VWS V14.01,2013-02-14 23:02:00,
2013-02-14 18:03:00,34.6,-99.9,-100.00,SW,221,6.1,7.2,-999,0.00,,---,0.04,VWS V14.01,2013-02-14 23:03:00,
2013-02-14 18:04:00,34.8,-99.9,-100.00,SSE,167,14.5,14.5,-999,0.00,,---,0.04,VWS V14.01,2013-02-14 23:04:00,
2013-02-14 18:07:00,34.8,-99.9,-100.00,SW,219,9.3,9.3,-999,0.00,,---,0.04,VWS V14.01,2013-02-14 23:07:00,
2013-02-14 18:08:00,34.6,-99.9,-100.00,SSW,205,5.4,10.0,-999,0.00,,---,0.04,VWS V14.01,2013-02-14 23:08:00,
2013-02-14 18:09:00,34.8,-99.9,-100.00,WSW,239,10.6,11.1,-999,0.00,,---,0.04,VWS V14.01,2013-02-14 23:09:00,
2013-02-14 18:12:00,34.8,-99.9,-100.00,SSW,201,11.6,14.0,-999,0.00,,---,0.04,VWS V14.01,2013-02-14 23:12:00,
2013-02-14 18:13:00,34.6,-99.9,-100.00,SW,224,12.0,12.0,-999,0.00,,---,0.04,VWS V14.01,2013-02-14 23:13:00,
2013-02-14 18:15:00,34.8,-99.9,-100.00,SW,219,6.1,13.0,-999,0.00,,---,0.04,VWS V14.01,2013-02-14 23:15:00,
2013-02-14 18:17:00,35.0,-99.9,-100.00,SSW,208,7.6,9.7,-999,0.00,,---,0.04,VWS V14.01,2013-02-14 23:17:00,
2013-02-14 18:19:00,35.0,-99.9,-100.00,South,174,4.4,9.9,-999,0.00,,---,0.04,VWS V14.01,2013-02-14 23:19:00,
2013-02-14 18:20:00,35.0,-99.9,-100.00,SW,214,9.7,11.4,-999,0.00,,---,0.04,VWS V14.01,2013-02-14 23:20:00,
2013-02-14 18:22:00,35.0,-99.9,-100.00,WSW,255,8.5,11.2,-999,0.00,,---,0.04,VWS V14.01,2013-02-14 23:22:00,
2013-02-14 18:24:00,34.8,-99.9,-100.00,SW,215,9.0,11.2,-999,0.00,,---,0.04,VWS V14.01,2013-02-14 23:24:00,
2013-02-14 18:25:00,35.0,-99.9,-100.00,SW,232,14.2,17.0,-999,0.00,,---,0.04,VWS V14.01,2013-02-14 23:25:00,
2013-02-14 18:27:00,35.3,-99.9,-100.00,SW,224,9.3,9.4,-999,0.00,,---,0.04,VWS V14.01,2013-02-14 23:27:00,
2013-02-14 18:29:00,35.3,-99.9,-100.00,SW,215,11.4,11.4,-999,0.00,,---,0.04,VWS V14.01,2013-02-14 23:29:00,
2013-02-14 18:30:00,35.3,-99.9,-100.00,SSW,194,5.8,10.3,-999,0.00,,---,0.04,VWS V14.01,2013-02-14 23:30:00,
2013-02-14 18:32:00,35.0,-99.9,-100.00,SSW,202,7.3,9.9,-999,0.00,,---,0.04,VWS V14.01,2013-02-14 23:32:00,
2013-02-14 18:34:00,34.8,-99.9,-100.00,SSW,193,5.3,7.3,-999,0.00,,---,0.04,VWS V14.01,2013-02-14 23:34:00,
2013-02-14 18:35:00,35.3,-99.9,-100.00,SSW,207,6.5,9.8,-999,0.00,,---,0.04,VWS V14.01,2013-02-14 23:35:00,
2013-02-14 18:37:00,35.3,-99.9,-100.00,SSW,195,5.1,8.2,-999,0.00,,---,0.04,VWS V14.01,2013-02-14 23:37:00,
2013-02-14 18:39:00,35.0,-99.9,-100.00,SSW,195,7.3,10.1,-999,0.00,,---,0.04,VWS V14.01,2013-02-14 23:39:00,
2013-02-14 18:40:00,34.6,-99.9,-100.00,SSW,198,8.7,14.5,-999,0.00,,---,0.04,VWS V14.01,2013-02-14 23:40:00,
2013-02-14 18:42:00,34.6,-99.9,-100.00,SW,218,8.6,8.6,-999,0.00,,---,0.04,VWS V14.01,2013-02-14 23:42:00,
2013-02-14 18:44:00,35.0,-99.9,-100.00,South,180,8.6,8.6,-999,0.00,,---,0.04,VWS V14.01,2013-02-14 23:44:00,
2013-02-14 18:45:00,34.8,-99.9,-100.00,South,191,6.9,10.6,-999,0.00,,---,0.04,VWS V14.01,2013-02-14 23:45:00,
2013-02-14 18:47:00,35.0,-99.9,-100.00,South,179,4.5,8.7,-999,0.00,,---,0.04,VWS V14.01,2013-02-14 23:47:00,
2013-02-14 18:49:00,35.0,-99.9,-100.00,South,190,4.6,5.1,-999,0.00,,---,0.04,VWS V14.01,2013-02-14 23:49:00,
2013-02-14 18:50:00,35.0,-99.9,-100.00,South,188,8.3,10.1,-999,0.00,,---,0.04,VWS V14.01,2013-02-14 23:50:00,
2013-02-14 18:52:00,35.0,-99.9,-100.00,South,187,2.9,7.3,-999,0.00,,---,0.04,VWS V14.01,2013-02-14 23:52:00,
2013-02-14 18:53:00,35.0,-99.9,-100.00,SSW,205,6.0,7.3,-999,0.00,,---,0.04,VWS V14.01,2013-02-14 23:53:00,
2013-02-14 18:54:00,34.8,-99.9,-100.00,South,183,8.0,8.0,-999,0.00,,---,0.04,VWS V14.01,2013-02-14 23:54:00,
2013-02-14 18:55:00,34.8,-99.9,-100.00,South,169,10.6,10.6,-999,0.00,,---,0.04,VWS V14.01,2013-02-14 23:55:00,
2013-02-14 18:57:00,35.3,-99.9,-100.00,SW,231,7.7,10.5,-999,0.00,,---,0.04,VWS V14.01,2013-02-14 23:57:00,
2013-02-14 18:58:00,35.0,-99.9,-100.00,South,187,11.6,11.6,-999,0.00,,---,0.04,VWS V14.01,2013-02-14 23:58:00,
2013-02-14 19:00:00,35.5,-99.9,-100.00,South,186,10.1,10.1,-999,0.00,,---,0.04,VWS V14.01,2013-02-15 00:00:00,
2013-02-14 19:02:00,35.3,-99.9,-100.00,South,183,4.2,5.8,-999,0.00,,---,0.04,VWS V14.01,2013-02-15 00:02:00,
2013-02-14 19:03:00,35.3,-99.9,-100.00,SSE,156,3.0,5.8,-999,0.00,,---,0.04,VWS V14.01,2013-02-15 00:03:00,
2013-02-14 19:05:00,35.3,-99.9,-100.00,SSW,202,5.9,6.7,-999,0.00,,---,0.04,VWS V14.01,2013-02-15 00:05:00,
2013-02-14 19:07:00,34.8,-99.9,-100.00,SSW,205,6.2,9.3,-999,0.00,,---,0.04,VWS V14.01,2013-02-15 00:07:00,
2013-02-14 19:08:00,35.5,-99.9,-100.00,South,188,10.3,10.3,-999,0.00,,---,0.04,VWS V14.01,2013-02-15 00:08:00,
2013-02-14 19:10:00,35.5,-99.9,-100.00,South,179,9.0,11.2,-999,0.00,,---,0.04,VWS V14.01,2013-02-15 00:10:00,
2013-02-14 19:12:00,35.0,-99.9,-100.00,SSW,198,5.2,11.4,-999,0.00,,---,0.04,VWS V14.01,2013-02-15 00:12:00,
2013-02-14 19:13:00,35.3,-99.9,-100.00,SSW,211,6.4,11.4,-999,0.00,,---,0.04,VWS V14.01,2013-02-15 00:13:00,
2013-02-14 19:15:00,35.3,-99.9,-100.00,South,184,7.9,7.9,-999,0.00,,---,0.04,VWS V14.01,2013-02-15 00:15:00,
2013-02-14 19:18:00,35.0,-99.9,-100.00,South,191,8.5,13.9,-999,0.00,,---,0.04,VWS V14.01,2013-02-15 00:18:00,
2013-02-14 19:20:00,35.3,-99.9,-100.00,South,188,9.5,9.8,-999,0.00,,---,0.04,VWS V14.01,2013-02-15 00:20:00,
2013-02-14 19:23:00,35.3,-99.9,-100.00,South,183,8.3,12.9,-999,0.00,,---,0.04,VWS V14.01,2013-02-15 00:23:00,
2013-02-14 19:25:00,35.5,-99.9,-100.00,South,188,8.5,8.9,-999,0.00,,---,0.04,VWS V14.01,2013-02-15 00:25:00,
2013-02-14 19:28:00,35.5,-99.9,-100.00,SE,131,8.6,9.2,-999,0.00,,---,0.04,VWS V14.01,2013-02-15 00:28:00,
2013-02-14 19:30:00,35.7,-99.9,-100.00,South,186,8.8,8.8,-999,0.00,,---,0.04,VWS V14.01,2013-02-15 00:30:00,
2013-02-14 19:31:00,35.7,-99.9,-100.00,SW,235,7.3,9.1,-999,0.00,,---,0.04,VWS V14.01,2013-02-15 00:31:00,
2013-02-14 19:33:00,35.7,-99.9,-100.00,SW,229,4.4,5.3,-999,0.00,,---,0.04,VWS V14.01,2013-02-15 00:33:00,
2013-02-14 19:35:00,35.7,-99.9,-100.00,WSW,243,0.0,4.8,-999,0.00,,---,0.04,VWS V14.01,2013-02-15 00:35:00,
2013-02-14 19:37:00,36.0,-99.9,-100.00,WSW,243,0.0,0.0,-999,0.00,,---,0.04,VWS V14.01,2013-02-15 00:37:00,
2013-02-14 19:38:00,35.7,-99.9,-100.00,SW,224,8.4,8.4,-999,0.00,,---,0.04,VWS V14.01,2013-02-15 00:38:00,
2013-02-14 19:39:00,35.7,-99.9,-100.00,SW,222,7.3,8.4,-999,0.00,,---,0.04,VWS V14.01,2013-02-15 00:39:00,
2013-02-14 19:40:00,36.3,-99.9,-100.00,SSE,163,12.2,12.2,-999,0.00,,---,0.04,VWS V14.01,2013-02-15 00:40:00,
2013-02-14 19:42:00,36.0,-99.9,-100.00,SSW,193,7.1,11.2,-999,0.00,,---,0.04,VWS V14.01,2013-02-15 00:42:00,
2013-02-14 19:44:00,36.0,-99.9,-100.00,SSW,205,7.5,7.5,-999,0.00,,---,0.04,VWS V14.01,2013-02-15 00:44:00,
2013-02-14 19:46:00,35.7,-99.9,-100.00,South,177,8.8,10.4,-999,0.00,,---,0.04,VWS V14.01,2013-02-15 00:46:00,
2013-02-14 19:47:00,35.7,-99.9,-100.00,South,183,3.2,7.0,-999,0.00,,---,0.04,VWS V14.01,2013-02-15 00:47:00,
2013-02-14 19:49:00,35.5,-99.9,-100.00,WSW,243,6.9,6.9,-999,0.00,,---,0.04,VWS V14.01,2013-02-15 00:49:00,
2013-02-14 19:51:00,36.0,-99.9,-100.00,South,188,6.5,8.1,-999,0.00,,---,0.04,VWS V14.01,2013-02-15 00:51:00,
2013-02-14 19:52:00,36.0,-99.9,-100.00,SSW,202,3.5,8.9,-999,0.00,,---,0.04,VWS V14.01,2013-02-15 00:52:00,
2013-02-14 19:54:00,36.0,-99.9,-100.00,South,191,4.5,8.1,-999,0.00,,---,0.04,VWS V14.01,2013-02-15 00:54:00,
2013-02-14 19:56:00,36.3,-99.9,-100.00,South,180,9.8,10.5,-999,0.00,,---,0.04,VWS V14.01,2013-02-15 00:56:00,
2013-02-14 19:57:00,36.3,-99.9,-100.00,SSE,163,7.0,11.8,-999,0.00,,---,0.04,VWS V14.01,2013-02-15 00:57:00,
2013-02-14 19:59:00,35.7,-99.9,-100.00,SSE,165,8.3,9.4,-999,0.00,,---,0.04,VWS V14.01,2013-02-15 00:59:00,
2013-02-14 20:01:00,36.3,-99.9,-100.00,SW,224,5.7,5.7,-999,0.00,,---,0.04,VWS V14.01,2013-02-15 01:01:00,
2013-02-14 20:02:00,36.3,-99.9,-100.00,SSW,198,6.2,6.2,-999,0.00,,---,0.04,VWS V14.01,2013-02-15 01:02:00,
2013-02-14 20:04:00,36.3,-99.9,-100.00,South,187,6.4,7.7,-999,0.00,,---,0.04,VWS V14.01,2013-02-15 01:04:00,
2013-02-14 20:06:00,36.0,-99.9,-100.00,SSE,165,3.1,4.2,-999,0.00,,---,0.04,VWS V14.01,2013-02-15 01:06:00,
2013-02-14 20:07:00,36.3,-99.9,-100.00,SSW,204,6.9,8.7,-999,0.00,,---,0.04,VWS V14.01,2013-02-15 01:07:00,
2013-02-14 20:09:00,36.0,-99.9,-100.00,SW,225,5.5,9.8,-999,0.00,,---,0.04,VWS V14.01,2013-02-15 01:09:00,
2013-02-14 20:11:00,36.5,-99.9,-100.00,SSW,202,7.2,7.2,-999,0.00,,---,0.04,VWS V14.01,2013-02-15 01:11:00,
2013-02-14 20:12:00,36.3,-99.9,-100.00,South,187,7.4,8.6,-999,0.00,,---,0.04,VWS V14.01,2013-02-15 01:12:00,
2013-02-14 20:14:00,36.0,-99.9,-100.00,South,187,4.6,8.4,-999,0.00,,---,0.04,VWS V14.01,2013-02-15 01:14:00,
2013-02-14 20:16:00,36.0,-99.9,-100.00,South,169,10.1,10.1,-999,0.00,,---,0.04,VWS V14.01,2013-02-15 01:16:00,
2013-02-14 20:18:00,36.5,-99.9,-100.00,SW,215,6.7,8.3,-999,0.00,,---,0.04,VWS V14.01,2013-02-15 01:18:00,
2013-02-14 20:19:00,36.5,-99.9,-100.00,South,186,4.2,7.6,-999,0.00,,---,0.04,VWS V14.01,2013-02-15 01:19:00,
2013-02-14 20:21:00,36.0,-99.9,-100.00,SW,232,5.0,6.5,-999,0.00,,---,0.04,VWS V14.01,2013-02-15 01:21:00,
2013-02-14 20:23:00,36.3,-99.9,-100.00,South,190,7.2,7.3,-999,0.00,,---,0.04,VWS V14.01,2013-02-15 01:23:00,
2013-02-14 20:24:00,36.3,-99.9,-100.00,SSW,201,5.5,8.3,-999,0.00,,---,0.04,VWS V14.01,2013-02-15 01:24:00,
2013-02-14 20:25:00,36.3,-99.9,-100.00,South,179,3.3,8.3,-999,0.00,,---,0.04,VWS V14.01,2013-02-15 01:25:00,
2013-02-14 20:26:00,36.5,-99.9,-100.00,South,176,6.8,6.8,-999,0.00,,---,0.04,VWS V14.01,2013-02-15 01:26:00,
2013-02-14 20:28:00,35.7,-99.9,-100.00,South,184,3.4,6.2,-999,0.00,,---,0.04,VWS V14.01,2013-02-15 01:28:00,
2013-02-14 20:29:00,36.3,-99.9,-100.00,South,190,9.9,10.7,-999,0.00,,---,0.04,VWS V14.01,2013-02-15 01:29:00,
2013-02-14 20:30:00,36.3,-99.9,-100.00,South,172,9.3,10.7,-999,0.00,,---,0.04,VWS V14.01,2013-02-15 01:30:00,
2013-02-14 20:31:00,36.3,-99.9,-100.00,SW,233,3.3,8.1,-999,0.00,,---,0.04,VWS V14.01,2013-02-15 01:31:00,
2013-02-14 20:33:00,36.0,-99.9,-100.00,SW,224,6.8,8.5,-999,0.00,,---,0.04,VWS V14.01,2013-02-15 01:33:00,
2013-02-14 20:34:00,36.5,-99.9,-100.00,SW,231,7.4,7.4,-999,0.00,,---,0.04,VWS V14.01,2013-02-15 01:34:00,
2013-02-14 20:35:00,36.5,-99.9,-100.00,SSW,210,5.7,7.4,-999,0.00,,---,0.04,VWS V14.01,2013-02-15 01:35:00,
2013-02-14 20:36:00,36.8,-99.9,-100.00,SSW,208,7.2,11.0,-999,0.00,,---,0.04,VWS V14.01,2013-02-15 01:36:00,
2013-02-14 20:38:00,36.8,-99.9,-100.00,South,186,9.9,11.2,-999,0.00,,---,0.04,VWS V14.01,2013-02-15 01:38:00,
2013-02-14 20:39:00,36.5,-99.9,-100.00,SSW,193,6.3,8.3,-999,0.00,,---,0.04,VWS V14.01,2013-02-15 01:39:00,
2013-02-14 20:40:00,36.0,-99.9,-100.00,South,184,10.3,10.3,-999,0.00,,---,0.04,VWS V14.01,2013-02-15 01:40:00,
2013-02-14 20:41:00,36.5,-99.9,-100.00,SSW,208,5.6,9.2,-999,0.00,,---,0.04,VWS V14.01,2013-02-15 01:41:00,
2013-02-14 20:44:00,36.8,-99.9,-100.00,South,191,7.1,7.2,-999,0.00,,---,0.04,VWS V14.01,2013-02-15 01:44:00,
2013-02-14 20:45:00,36.8,-99.9,-100.00,SSW,200,6.2,10.8,-999,0.00,,---,0.04,VWS V14.01,2013-02-15 01:45:00,
2013-02-14 20:46:00,37.3,-99.9,-100.00,South,180,10.7,12.7,-999,0.00,,---,0.04,VWS V14.01,2013-02-15 01:46:00,
2013-02-14 20:49:00,37.0,-99.9,-100.00,South,180,14.1,15.3,-999,0.00,,---,0.04,VWS V14.01,2013-02-15 01:49:00,
2013-02-14 20:50:00,37.0,-99.9,-100.00,South,187,6.5,6.5,-999,0.00,,---,0.04,VWS V14.01,2013-02-15 01:50:00,
2013-02-14 20:52:00,37.0,-99.9,-100.00,SW,218,6.5,10.5,-999,0.00,,---,0.04,VWS V14.01,2013-02-15 01:52:00,
2013-02-14 20:54:00,37.3,-99.9,-100.00,South,188,10.2,12.1,-999,0.00,,---,0.04,VWS V14.01,2013-02-15 01:54:00,
2013-02-14 20:55:00,37.0,-99.9,-100.00,SSW,198,5.0,12.0,-999,0.00,,---,0.04,VWS V14.01,2013-02-15 01:55:00,
2013-02-14 20:57:00,37.0,-99.9,-100.00,SSW,194,4.4,7.4,-999,0.00,,---,0.04,VWS V14.01,2013-02-15 01:57:00,
2013-02-14 20:59:00,37.3,-99.9,-100.00,SSW,210,0.0,7.1,-999,0.00,,---,0.04,VWS V14.01,2013-02-15 01:59:00,
2013-02-14 21:01:00,37.0,-99.9,-100.00,SW,224,7.5,7.5,-999,0.00,,---,0.04,VWS V14.01,2013-02-15 02:01:00,
2013-02-14 21:02:00,37.3,-99.9,-100.00,WSW,248,7.1,8.6,-999,0.00,,---,0.04,VWS V14.01,2013-02-15 02:02:00,
2013-02-14 21:04:00,37.3,-99.9,-100.00,WSW,238,9.0,9.6,-999,0.00,,---,0.04,VWS V14.01,2013-02-15 02:04:00,
2013-02-14 21:05:00,37.5,-99.9,-100.00,SW,222,11.7,12.2,-999,0.00,,---,0.04,VWS V14.01,2013-02-15 02:05:00,
2013-02-14 21:06:00,37.8,-99.9,-100.00,SSW,210,6.7,11.7,-999,0.00,,---,0.04,VWS V14.01,2013-02-15 02:06:00,
2013-02-14 21:07:00,37.8,-99.9,-100.00,WSW,250,9.9,11.1,-999,0.00,,---,0.04,VWS V14.01,2013-02-15 02:07:00,
2013-02-14 21:09:00,37.5,-99.9,-100.00,WSW,242,9.3,9.3,-999,0.00,,---,0.04,VWS V14.01,2013-02-15 02:09:00,
2013-02-14 21:10:00,38.0,-99.9,-100.00,South,190,8.2,8.2,-999,0.00,,---,0.04,VWS V14.01,2013-02-15 02:10:00,
2013-02-14 21:11:00,37.8,-99.9,-100.00,SW,228,8.9,8.9,-999,0.00,,---,0.04,VWS V14.01,2013-02-15 02:11:00,
2013-02-14 21:12:00,37.5,-99.9,-100.00,WSW,248,8.5,8.5,-999,0.00,,---,0.04,VWS V14.01,2013-02-15 02:12:00,
2013-02-14 21:14:00,37.8,-99.9,-100.00,SW,233,6.2,6.2,-999,0.00,,---,0.04,VWS V14.01,2013-02-15 02:14:00,
2013-02-14 21:15:00,37.5,-99.9,-100.00,West,270,5.1,5.1,-999,0.00,,---,0.04,VWS V14.01,2013-02-15 02:15:00,
2013-02-14 21:16:00,37.8,-99.9,-100.00,WSW,239,6.2,8.7,-999,0.00,,---,0.04,VWS V14.01,2013-02-15 02:16:00,
2013-02-14 21:17:00,37.3,-99.9,-100.00,WSW,240,4.2,6.5,-999,0.00,,---,0.04,VWS V14.01,2013-02-15 02:17:00,
2013-02-14 21:19:00,37.3,-99.9,-100.00,SW,235,9.1,9.1,-999,0.00,,---,0.04,VWS V14.01,2013-02-15 02:19:00,
2013-02-14 21:20:00,37.0,-99.9,-100.00,WSW,246,6.1,6.4,-999,0.00,,---,0.04,VWS V14.01,2013-02-15 02:20:00,
2013-02-14 21:21:00,37.0,-99.9,-100.00,WSW,250,5.2,8.7,-999,0.00,,---,0.04,VWS V14.01,2013-02-15 02:21:00,
2013-02-14 21:22:00,37.5,-99.9,-100.00,WSW,252,7.4,9.2,-999,0.00,,---,0.04,VWS V14.01,2013-02-15 02:22:00,
2013-02-14 21:24:00,37.5,-99.9,-100.00,SW,217,6.2,9.4,-999,0.00,,---,0.04,VWS V14.01,2013-02-15 02:24:00,
2013-02-14 21:25:00,37.3,-99.9,-100.00,SW,217,6.8,9.3,-999,0.00,,---,0.04,VWS V14.01,2013-02-15 02:25:00,
2013-02-14 21:26:00,37.8,-99.9,-100.00,SW,215,5.9,9.3,-999,0.00,,---,0.04,VWS V14.01,2013-02-15 02:26:00,
2013-02-14 21:27:00,37.8,-99.9,-100.00,West,263,3.4,4.3,-999,0.00,,---,0.04,VWS V14.01,2013-02-15 02:27:00,
2013-02-14 21:30:00,37.0,-99.9,-100.00,SSW,195,4.7,8.3,-999,0.00,,---,0.04,VWS V14.01,2013-02-15 02:30:00,
2013-02-14 21:31:00,37.5,-99.9,-100.00,WSW,245,7.3,10.1,-999,0.00,,---,0.04,VWS V14.01,2013-02-15 02:31:00,
2013-02-14 21:32:00,37.0,-99.9,-100.00,WSW,240,5.8,5.8,-999,0.00,,---,0.04,VWS V14.01,2013-02-15 02:32:00,
2013-02-14 21:35:00,37.3,-99.9,-100.00,SSW,211,7.0,8.9,-999,0.00,,---,0.04,VWS V14.01,2013-02-15 02:35:00,
2013-02-14 21:36:00,37.5,-99.9,-100.00,SSW,202,7.1,9.7,-999,0.00,,---,0.04,VWS V14.01,2013-02-15 02:36:00,
2013-02-14 21:37:00,37.0,-99.9,-100.00,SSE,163,0.0,3.3,-999,0.00,,---,0.04,VWS V14.01,2013-02-15 02:37:00,
2013-02-14 21:40:00,37.5,-99.9,-100.00,WSW,248,5.0,6.3,-999,0.00,,---,0.04,VWS V14.01,2013-02-15 02:40:00,
2013-02-14 21:41:00,37.3,-99.9,-100.00,WSW,252,4.9,5.6,-999,0.00,,---,0.04,VWS V14.01,2013-02-15 02:41:00,
2013-02-14 21:42:00,37.0,-99.9,-100.00,SW,225,4.5,5.5,-999,0.00,,---,0.04,VWS V14.01,2013-02-15 02:42:00,
2013-02-14 21:45:00,37.5,-99.9,-100.00,WSW,239,7.9,7.9,-999,0.00,,---,0.04,VWS V14.01,2013-02-15 02:45:00,
2013-02-14 21:46:00,37.3,-99.9,-100.00,SW,231,6.6,7.1,-999,0.00,,---,0.04,VWS V14.01,2013-02-15 02:46:00,
2013-02-14 21:47:00,37.0,-99.9,-100.00,SW,217,5.3,7.3,-999,0.00,,---,0.04,VWS V14.01,2013-02-15 02:47:00,
2013-02-14 21:50:00,37.0,-99.9,-100.00,WSW,257,6.8,10.9,-999,0.00,,---,0.04,VWS V14.01,2013-02-15 02:50:00,
2013-02-14 21:51:00,37.5,-99.9,-100.00,SSW,211,6.7,12.8,-999,0.00,,---,0.04,VWS V14.01,2013-02-15 02:51:00,
2013-02-14 21:52:00,37.3,-99.9,-100.00,WSW,238,4.6,7.2,-999,0.00,,---,0.04,VWS V14.01,2013-02-15 02:52:00,
2013-02-14 21:55:00,37.3,-99.9,-100.00,SW,226,9.0,9.0,-999,0.00,,---,0.04,VWS V14.01,2013-02-15 02:55:00,
2013-02-14 21:56:00,37.3,-99.9,-100.00,WSW,255,6.9,9.0,-999,0.00,,---,0.04,VWS V14.01,2013-02-15 02:56:00,
2013-02-14 21:57:00,37.5,-99.9,-100.00,SW,224,0.0,6.6,-999,0.00,,---,0.04,VWS V14.01,2013-02-15 02:57:00,
2013-02-14 22:00:00,37.3,-99.9,-100.00,WSW,246,3.3,3.3,-999,0.00,,---,0.04,VWS V14.01,2013-02-15 03:00:00,
2013-02-14 22:01:00,37.5,-99.9,-100.00,SW,215,4.5,7.6,-999,0.00,,---,0.04,VWS V14.01,2013-02-15 03:01:00,
2013-02-14 22:02:00,37.0,-99.9,-100.00,South,184,5.7,8.0,-999,0.00,,---,0.04,VWS V14.01,2013-02-15 03:02:00,
2013-02-14 22:05:00,37.8,-99.9,-100.00,WSW,240,5.9,6.4,-999,0.00,,---,0.04,VWS V14.01,2013-02-15 03:05:00,
2013-02-14 22:06:00,37.5,-99.9,-100.00,SW,224,5.7,7.5,-999,0.00,,---,0.04,VWS V14.01,2013-02-15 03:06:00,
2013-02-14 22:07:00,37.3,-99.9,-100.00,WSW,239,4.6,6.5,-999,0.00,,---,0.04,VWS V14.01,2013-02-15 03:07:00,
2013-02-14 22:10:00,37.8,-99.9,-100.00,SW,226,5.0,7.1,-999,0.00,,---,0.04,VWS V14.01,2013-02-15 03:10:00,
2013-02-14 22:11:00,37.8,-99.9,-100.00,SSW,211,4.2,7.1,-999,0.00,,---,0.04,VWS V14.01,2013-02-15 03:11:00,
2013-02-14 22:13:00,37.5,-99.9,-100.00,SW,233,6.4,7.3,-999,0.00,,---,0.04,VWS V14.01,2013-02-15 03:13:00,
2013-02-14 22:15:00,37.5,-99.9,-100.00,WSW,240,8.3,8.3,-999,0.00,,---,0.04,VWS V14.01,2013-02-15 03:15:00,
2013-02-14 22:16:00,37.5,-99.9,-100.00,WSW,256,6.8,10.0,-999,0.00,,---,0.04,VWS V14.01,2013-02-15 03:16:00,
2013-02-14 22:17:00,37.5,-99.9,-100.00,WSW,246,6.2,8.0,-999,0.00,,---,0.04,VWS V14.01,2013-02-15 03:17:00,
2013-02-14 22:18:00,37.3,-99.9,-100.00,WSW,243,8.9,10.7,-999,0.00,,---,0.04,VWS V14.01,2013-02-15 03:18:00,
2013-02-14 22:20:00,37.5,-99.9,-100.00,WSW,250,0.0,0.0,-999,0.00,,---,0.04,VWS V14.01,2013-02-15 03:20:00,
2013-02-14 22:21:00,37.3,-99.9,-100.00,WSW,246,8.0,8.0,-999,0.00,,---,0.04,VWS V14.01,2013-02-15 03:21:00,
2013-02-14 22:22:00,37.3,-99.9,-100.00,WSW,242,6.0,13.4,-999,0.00,,---,0.04,VWS V14.01,2013-02-15 03:22:00,
2013-02-14 22:23:00,37.5,-99.9,-100.00,WSW,257,9.4,11.9,-999,0.00,,---,0.04,VWS V14.01,2013-02-15 03:23:00,
2013-02-14 22:25:00,37.8,-99.9,-100.00,SW,225,5.2,6.6,-999,0.00,,---,0.04,VWS V14.01,2013-02-15 03:25:00,
2013-02-14 22:26:00,37.5,-99.9,-100.00,SW,233,7.3,7.3,-999,0.00,,---,0.04,VWS V14.01,2013-02-15 03:26:00,
2013-02-14 22:27:00,37.8,-99.9,-100.00,SW,233,6.9,11.4,-999,0.00,,---,0.04,VWS V14.01,2013-02-15 03:27:00,
2013-02-14 22:28:00,37.8,-99.9,-100.00,WSW,238,7.6,15.8,-999,0.00,,---,0.04,VWS V14.01,2013-02-15 03:28:00,
2013-02-14 22:30:00,37.8,-99.9,-100.00,South,186,11.2,13.5,-999,0.00,,---,0.04,VWS V14.01,2013-02-15 03:30:00,
2013-02-14 22:31:00,37.8,-99.9,-100.00,SW,228,10.9,13.5,-999,0.00,,---,0.04,VWS V14.01,2013-02-15 03:31:00,
2013-02-14 22:32:00,37.5,-99.9,-100.00,SSW,208,6.3,10.8,-999,0.00,,---,0.04,VWS V14.01,2013-02-15 03:32:00,
2013-02-14 22:33:00,37.8,-99.9,-100.00,SW,229,7.8,15.0,-999,0.00,,---,0.04,VWS V14.01,2013-02-15 03:33:00,
2013-02-14 22:35:00,37.8,-99.9,-100.00,WSW,249,6.8,7.6,-999,0.00,,---,0.04,VWS V14.01,2013-02-15 03:35:00,
2013-02-14 22:36:00,38.0,-99.9,-100.00,WSW,253,8.7,8.7,-999,0.00,,---,0.04,VWS V14.01,2013-02-15 03:36:00,
2013-02-14 22:37:00,37.5,-99.9,-100.00,South,173,4.3,8.0,-999,0.00,,---,0.04,VWS V14.01,2013-02-15 03:37:00,
2013-02-14 22:38:00,37.3,-99.9,-100.00,WSW,245,11.2,11.2,-999,0.00,,---,0.04,VWS V14.01,2013-02-15 03:38:00,
2013-02-14 22:41:00,37.3,-99.9,-100.00,West,273,8.3,8.7,-999,0.00,,---,0.04,VWS V14.01,2013-02-15 03:41:00,
2013-02-14 22:42:00,37.8,-99.9,-100.00,SW,219,9.6,12.0,-999,0.00,,---,0.04,VWS V14.01,2013-02-15 03:42:00,
2013-02-14 22:43:00,37.5,-99.9,-100.00,SW,232,7.8,12.4,-999,0.00,,---,0.04,VWS V14.01,2013-02-15 03:43:00,
2013-02-14 22:46:00,37.3,-99.9,-100.00,SW,217,8.1,8.1,-999,0.00,,---,0.04,VWS V14.01,2013-02-15 03:46:00,
2013-02-14 22:47:00,37.0,-99.9,-100.00,WSW,245,6.9,8.9,-999,0.00,,---,0.04,VWS V14.01,2013-02-15 03:47:00,
2013-02-14 22:48:00,37.0,-99.9,-100.00,WSW,249,4.6,4.6,-999,0.00,,---,0.04,VWS V14.01,2013-02-15 03:48:00,
2013-02-14 22:51:00,36.5,-99.9,-100.00,WNW,285,6.0,16.5,-999,0.00,,---,0.04,VWS V14.01,2013-02-15 03:51:00,
2013-02-14 22:52:00,36.3,-99.9,-100.00,SW,232,5.0,11.6,-999,0.00,,---,0.04,VWS V14.01,2013-02-15 03:52:00,
2013-02-14 22:53:00,36.5,-99.9,-100.00,SW,218,7.5,7.5,-999,0.00,,---,0.04,VWS V14.01,2013-02-15 03:53:00,
2013-02-14 22:56:00,36.3,-99.9,-100.00,WSW,238,10.8,17.2,-999,0.00,,---,0.04,VWS V14.01,2013-02-15 03:56:00,
2013-02-14 22:57:00,36.0,-99.9,-100.00,West,280,4.9,4.9,-999,0.00,,---,0.04,VWS V14.01,2013-02-15 03:57:00,
2013-02-14 22:58:00,36.3,-99.9,-100.00,SW,235,7.0,9.9,-999,0.00,,---,0.04,VWS V14.01,2013-02-15 03:58:00,